Wetterdaten: Mittwoch, 04.01.2017
Datum Zeit Temp. Aussen Temp. o. S. +5cm Feuchte Auss BlattFeu 1 Luftdruck Regen Sonnenschein Regendauer Solar Windben Empfang
04.01.2017 00:00 3,1 C 3,3 C 1,7 C 94 % 0 lf 1016,9 hPa 0,0 l/m 0 min 0 min 0 W/m 41,8 km/h (6 Bft) 93,62 %
04.01.2017 00:02 3,1 C 3,3 C 1,7 C 94 % 0 lf 1016,9 hPa 0,0 l/m 0 min 0 min 0 W/m 33,5 km/h (5 Bft) 94,74 %
04.01.2017 00:04 3,1 C 3,3 C 1,7 C 94 % 0 lf 1017,0 hPa 0,0 l/m 0 min 0 min 0 W/m 41,8 km/h (6 Bft) 100,00 %
04.01.2017 00:06 3,1 C 3,3 C 1,7 C 94 % 0 lf 1016,9 hPa 0,0 l/m 0 min 0 min 0 W/m 31,4 km/h (5 Bft) 95,74 %
04.01.2017 00:08 3,1 C 3,3 C 1,7 C 94 % 0 lf 1016,8 hPa 0,0 l/m 0 min 0 min 0 W/m 37,7 km/h (5 Bft) 97,87 %
04.01.2017 00:10 3,1 C 3,3 C 1,7 C 94 % 0 lf 1016,8 hPa 0,0 l/m 0 min 0 min 0 W/m 33,5 km/h (5 Bft) 97,83 %
04.01.2017 00:12 3,1 C 3,3 C 1,7 C 94 % 0 lf 1016,8 hPa 0,0 l/m 0 min 0 min 0 W/m 33,5 km/h (5 Bft) 95,74 %
04.01.2017 00:14 3,1 C 3,3 C 1,7 C 94 % 0 lf 1016,9 hPa 0,0 l/m 0 min 0 min 0 W/m 33,5 km/h (5 Bft) 95,74 %
04.01.2017 00:16 3,1 C 3,3 C 1,7 C 94 % 1 lf 1016,8 hPa 0,0 l/m 0 min 0 min 0 W/m 27,2 km/h (4 Bft) 95,74 %
04.01.2017 00:18 3,1 C 3,3 C 1,7 C 94 % 1 lf 1016,7 hPa 0,0 l/m 0 min 0 min 0 W/m 29,3 km/h (5 Bft) 91,49 %
04.01.2017 00:20 3,1 C 3,3 C 1,7 C 94 % 1 lf 1016,7 hPa 0,0 l/m 0 min 0 min 0 W/m 31,4 km/h (5 Bft) 95,74 %
04.01.2017 00:22 3,1 C 3,3 C 1,7 C 94 % 1 lf 1016,9 hPa 0,0 l/m 0 min 0 min 0 W/m 39,7 km/h (6 Bft) 95,65 %
04.01.2017 00:24 3,0 C 3,3 C 1,7 C 94 % 1 lf 1016,8 hPa 0,0 l/m 0 min 0 min 0 W/m 33,5 km/h (5 Bft) 95,74 %
04.01.2017 00:26 3,0 C 3,3 C 1,7 C 94 % 2 lf 1016,7 hPa 0,0 l/m 0 min 0 min 0 W/m 29,3 km/h (5 Bft) 95,74 %
04.01.2017 00:28 3,0 C 3,3 C 1,7 C 94 % 2 lf 1016,7 hPa 0,0 l/m 0 min 0 min 0 W/m 35,6 km/h (5 Bft) 95,74 %
04.01.2017 00:30 3,0 C 3,3 C 1,7 C 94 % 2 lf 1016,7 hPa 0,0 l/m 0 min 0 min 0 W/m 39,7 km/h (6 Bft) 95,74 %
04.01.2017 00:32 3,0 C 3,3 C 1,7 C 94 % 2 lf 1016,7 hPa 0,0 l/m 0 min 0 min 0 W/m 23,0 km/h (4 Bft) 95,74 %
04.01.2017 00:34 3,0 C 2,8 C 1,7 C 94 % 2 lf 1016,8 hPa 0,0 l/m 0 min 0 min 0 W/m 29,3 km/h (5 Bft) 93,48 %
04.01.2017 00:36 2,9 C 2,8 C 1,7 C 94 % 2 lf 1016,8 hPa 0,0 l/m 0 min 0 min 0 W/m 27,2 km/h (4 Bft) 95,74 %
04.01.2017 00:38 2,9 C 2,8 C 1,7 C 94 % 1 lf 1016,8 hPa 0,0 l/m 0 min 0 min 0 W/m 31,4 km/h (5 Bft) 93,62 %
04.01.2017 00:40 2,9 C 2,8 C 1,7 C 94 % 2 lf 1016,7 hPa 0,0 l/m 0 min 0 min 0 W/m 29,3 km/h (5 Bft) 91,49 %
04.01.2017 00:42 2,9 C 2,8 C 1,7 C 95 % 2 lf 1016,6 hPa 0,0 l/m 0 min 0 min 0 W/m 29,3 km/h (5 Bft) 93,62 %
04.01.2017 00:44 2,9 C 2,8 C 1,7 C 95 % 3 lf 1016,5 hPa 0,0 l/m 0 min 0 min 0 W/m 33,5 km/h (5 Bft) 93,62 %
04.01.2017 00:46 2,9 C 2,8 C 1,7 C 95 % 3 lf 1016,5 hPa 0,0 l/m 0 min 0 min 0 W/m 37,7 km/h (5 Bft) 93,48 %
04.01.2017 00:48 2,9 C 2,8 C 1,7 C 95 % 3 lf 1016,5 hPa 0,0 l/m 0 min 0 min 0 W/m 35,6 km/h (5 Bft) 95,74 %
04.01.2017 00:50 2,9 C 2,8 C 1,7 C 95 % 2 lf 1016,5 hPa 0,0 l/m 0 min 0 min 0 W/m 27,2 km/h (4 Bft) 91,49 %
04.01.2017 00:52 2,9 C 2,8 C 1,7 C 95 % 2 lf 1016,5 hPa 0,0 l/m 0 min 0 min 0 W/m 33,5 km/h (5 Bft) 93,62 %
04.01.2017 00:54 2,9 C 2,8 C 1,7 C 95 % 2 lf 1016,5 hPa 0,0 l/m 0 min 0 min 0 W/m 33,5 km/h (5 Bft) 97,87 %
04.01.2017 00:56 2,9 C 2,8 C 1,7 C 95 % 3 lf 1016,5 hPa 0,0 l/m 0 min 0 min 0 W/m 35,6 km/h (5 Bft) 93,62 %
04.01.2017 00:58 2,9 C 2,8 C 1,7 C 95 % 3 lf 1016,4 hPa 0,0 l/m 0 min 0 min 0 W/m 35,6 km/h (5 Bft) 97,83 %
04.01.2017 01:00 2,9 C 2,8 C 1,7 C 95 % 4 lf 1016,5 hPa 0,0 l/m 0 min 0 min 0 W/m 31,4 km/h (5 Bft) 95,74 %
04.01.2017 01:02 2,9 C 2,8 C 1,7 C 95 % 6 lf 1016,4 hPa 0,0 l/m 0 min 0 min 0 W/m 31,4 km/h (5 Bft) 93,62 %
04.01.2017 01:04 2,9 C 2,8 C 1,7 C 95 % 11 lf 1016,4 hPa 0,0 l/m 0 min 0 min 0 W/m 31,4 km/h (5 Bft) 95,74 %
04.01.2017 01:06 2,9 C 2,8 C 1,7 C 95 % 14 lf 1016,3 hPa 0,0 l/m 0 min 0 min 0 W/m 33,5 km/h (5 Bft) 97,87 %
04.01.2017 01:08 2,9 C 2,8 C 1,7 C 95 % 15 lf 1016,2 hPa 0,0 l/m 0 min 0 min 0 W/m 41,8 km/h (6 Bft) 93,48 %
04.01.2017 01:10 2,9 C 2,8 C 1,7 C 95 % 15 lf 1016,2 hPa 0,0 l/m 0 min 0 min 0 W/m 27,2 km/h (4 Bft) 97,87 %
04.01.2017 01:12 2,9 C 2,8 C 1,7 C 95 % 15 lf 1016,2 hPa 0,0 l/m 0 min 0 min 0 W/m 33,5 km/h (5 Bft) 95,74 %
04.01.2017 01:14 2,9 C 2,8 C 1,7 C 95 % 15 lf 1016,2 hPa 0,0 l/m 0 min 0 min 0 W/m 37,7 km/h (5 Bft) 95,74 %
04.01.2017 01:16 2,9 C 2,8 C 1,7 C 95 % 15 lf 1016,2 hPa 0,0 l/m 0 min 0 min 0 W/m 37,7 km/h (5 Bft) 97,87 %
04.01.2017 01:18 2,9 C 2,8 C 1,7 C 95 % 15 lf 1016,2 hPa 0,0 l/m 0 min 0 min 0 W/m 31,4 km/h (5 Bft) 95,74 %
04.01.2017 01:20 2,9 C 2,8 C 1,7 C 95 % 15 lf 1016,1 hPa 0,0 l/m 0 min 0 min 0 W/m 37,7 km/h (5 Bft) 97,83 %
04.01.2017 01:22 2,9 C 2,8 C 1,7 C 95 % 15 lf 1016,1 hPa 0,0 l/m 0 min 0 min 0 W/m 23,0 km/h (4 Bft) 100,00 %
04.01.2017 01:24 2,9 C 2,8 C 1,7 C 95 % 15 lf 1016,1 hPa 0,0 l/m 0 min 0 min 0 W/m 35,6 km/h (5 Bft) 100,00 %
04.01.2017 01:26 2,9 C 2,8 C 1,7 C 96 % 15 lf 1016,0 hPa 0,0 l/m 0 min 0 min 0 W/m 39,7 km/h (6 Bft) 100,00 %
04.01.2017 01:28 2,9 C 2,8 C 1,7 C 96 % 15 lf 1015,9 hPa 0,0 l/m 0 min 0 min 0 W/m 35,6 km/h (5 Bft) 100,00 %
04.01.2017 01:30 2,9 C 2,8 C 1,7 C 96 % 15 lf 1015,8 hPa 0,0 l/m 0 min 0 min 0 W/m 37,7 km/h (5 Bft) 93,62 %
04.01.2017 01:32 2,9 C 2,8 C 1,7 C 96 % 15 lf 1015,8 hPa 0,0 l/m 0 min 0 min 0 W/m 39,7 km/h (6 Bft) 100,00 %
04.01.2017 01:34 2,9 C 2,8 C 1,7 C 96 % 15 lf 1015,8 hPa 0,0 l/m 0 min 0 min 0 W/m 41,8 km/h (6 Bft) 97,87 %
04.01.2017 01:36 2,9 C 2,8 C 1,7 C 96 % 15 lf 1015,8 hPa 0,0 l/m 0 min 0 min 0 W/m 33,5 km/h (5 Bft) 100,00 %
04.01.2017 01:38 2,9 C 2,8 C 1,7 C 96 % 15 lf 1015,8 hPa 0,0 l/m 0 min 0 min 0 W/m 43,9 km/h (6 Bft) 100,00 %
04.01.2017 01:40 2,9 C 2,8 C 1,7 C 96 % 15 lf 1015,8 hPa 0,0 l/m 0 min 0 min 0 W/m 35,6 km/h (5 Bft) 93,62 %
04.01.2017 01:42 2,8 C 2,8 C 1,7 C 96 % 15 lf 1015,8 hPa 0,0 l/m 0 min 0 min 0 W/m 31,4 km/h (5 Bft) 100,00 %
04.01.2017 01:44 2,9 C 2,8 C 1,7 C 96 % 15 lf 1015,6 hPa 0,0 l/m 0 min 0 min 0 W/m 33,5 km/h (5 Bft) 97,83 %
04.01.2017 01:46 2,8 C 2,8 C 1,7 C 96 % 15 lf 1015,7 hPa 0,0 l/m 0 min 0 min 0 W/m 39,7 km/h (6 Bft) 91,49 %
04.01.2017 01:48 2,8 C 2,8 C 1,7 C 96 % 15 lf 1015,7 hPa 0,0 l/m 0 min 0 min 0 W/m 39,7 km/h (6 Bft) 95,74 %
04.01.2017 01:50 2,9 C 2,8 C 1,7 C 96 % 15 lf 1015,5 hPa 0,0 l/m 0 min 0 min 0 W/m 35,6 km/h (5 Bft) 97,87 %
04.01.2017 01:52 2,9 C 2,8 C 1,7 C 96 % 15 lf 1015,5 hPa 0,0 l/m 0 min 0 min 0 W/m 33,5 km/h (5 Bft) 95,74 %
04.01.2017 01:54 2,9 C 2,8 C 1,7 C 96 % 15 lf 1015,4 hPa 0,0 l/m 0 min 0 min 0 W/m 41,8 km/h (6 Bft) 93,62 %
04.01.2017 01:56 2,9 C 2,8 C 1,7 C 96 % 15 lf 1015,3 hPa 0,0 l/m 0 min 0 min 0 W/m 35,6 km/h (5 Bft) 95,65 %
04.01.2017 01:58 2,9 C 2,8 C 1,7 C 96 % 15 lf 1015,3 hPa 0,0 l/m 0 min 0 min 0 W/m 35,6 km/h (5 Bft) 93,62 %
04.01.2017 02:00 2,9 C 2,8 C 1,7 C 96 % 15 lf 1015,3 hPa 0,0 l/m 0 min 0 min 0 W/m 33,5 km/h (5 Bft) 95,74 %
04.01.2017 02:02 2,9 C 2,8 C 1,7 C 96 % 15 lf 1015,3 hPa 0,0 l/m 0 min 0 min 0 W/m 35,6 km/h (5 Bft) 95,74 %
04.01.2017 02:04 2,9 C 2,8 C 1,7 C 96 % 15 lf 1015,3 hPa 0,0 l/m 0 min 0 min 0 W/m 41,8 km/h (6 Bft) 91,49 %
04.01.2017 02:06 2,9 C 2,8 C 1,7 C 96 % 15 lf 1015,2 hPa 0,0 l/m 0 min 0 min 0 W/m 35,6 km/h (5 Bft) 95,74 %
04.01.2017 02:08 2,9 C 2,8 C 1,7 C 96 % 15 lf 1015,2 hPa 0,0 l/m 0 min 0 min 0 W/m 35,6 km/h (5 Bft) 95,65 %
04.01.2017 02:10 2,9 C 2,8 C 1,7 C 96 % 15 lf 1015,2 hPa 0,0 l/m 0 min 2 min 0 W/m 27,2 km/h (4 Bft) 93,62 %
04.01.2017 02:12 2,9 C 2,8 C 1,7 C 96 % 15 lf 1015,2 hPa 0,0 l/m 0 min 0 min 0 W/m 37,7 km/h (5 Bft) 91,49 %
04.01.2017 02:14 2,9 C 2,8 C 1,7 C 96 % 15 lf 1015,3 hPa 0,0 l/m 0 min 0 min 0 W/m 31,4 km/h (5 Bft) 95,74 %
04.01.2017 02:16 2,9 C 2,8 C 1,7 C 96 % 15 lf 1015,4 hPa 0,0 l/m 0 min 0 min 0 W/m 33,5 km/h (5 Bft) 91,49 %
04.01.2017 02:18 2,9 C 2,8 C 1,7 C 96 % 15 lf 1015,3 hPa 0,0 l/m 0 min 0 min 0 W/m 29,3 km/h (5 Bft) 91,49 %
04.01.2017 02:20 2,9 C 2,8 C 1,7 C 96 % 15 lf 1015,4 hPa 0,0 l/m 0 min 0 min 0 W/m 41,8 km/h (6 Bft) 93,48 %
04.01.2017 02:22 2,9 C 2,8 C 1,7 C 96 % 15 lf 1015,3 hPa 0,0 l/m 0 min 0 min 0 W/m 27,2 km/h (4 Bft) 93,62 %
04.01.2017 02:24 2,9 C 2,8 C 1,7 C 96 % 15 lf 1015,3 hPa 0,0 l/m 0 min 0 min 0 W/m 33,5 km/h (5 Bft) 95,74 %
04.01.2017 02:26 2,9 C 2,8 C 1,7 C 96 % 15 lf 1015,2 hPa 0,0 l/m 0 min 0 min 0 W/m 33,5 km/h (5 Bft) 93,62 %
04.01.2017 02:28 2,9 C 2,8 C 1,7 C 96 % 15 lf 1015,1 hPa 0,0 l/m 0 min 0 min 0 W/m 31,4 km/h (5 Bft) 91,49 %
04.01.2017 02:30 2,9 C 2,8 C 1,7 C 96 % 15 lf 1015,2 hPa 0,0 l/m 0 min 0 min 0 W/m 27,2 km/h (4 Bft) 91,30 %
04.01.2017 02:32 2,9 C 2,8 C 1,7 C 96 % 15 lf 1015,3 hPa 0,0 l/m 0 min 0 min 0 W/m 33,5 km/h (5 Bft) 93,62 %
04.01.2017 02:34 2,9 C 2,8 C 1,7 C 96 % 15 lf 1015,2 hPa 0,0 l/m 0 min 0 min 0 W/m 25,1 km/h (4 Bft) 93,62 %
04.01.2017 02:36 2,9 C 2,8 C 1,7 C 96 % 15 lf 1015,3 hPa 0,0 l/m 0 min 0 min 0 W/m 29,3 km/h (5 Bft) 93,62 %
04.01.2017 02:38 2,9 C 3,3 C 1,7 C 96 % 15 lf 1015,3 hPa 0,0 l/m 0 min 2 min 0 W/m 37,7 km/h (5 Bft) 93,62 %
04.01.2017 02:40 3,0 C 3,3 C 1,7 C 96 % 15 lf 1015,4 hPa 0,0 l/m 0 min 0 min 0 W/m 27,2 km/h (4 Bft) 95,74 %
04.01.2017 02:42 3,0 C 3,3 C 1,7 C 97 % 15 lf 1015,4 hPa 0,0 l/m 0 min 0 min 0 W/m 23,0 km/h (4 Bft) 89,36 %
04.01.2017 02:44 3,0 C 3,3 C 1,7 C 97 % 15 lf 1015,3 hPa 0,0 l/m 0 min 2 min 0 W/m 29,3 km/h (5 Bft) 95,65 %
04.01.2017 02:46 3,0 C 3,3 C 1,7 C 97 % 15 lf 1015,4 hPa 0,0 l/m 0 min 0 min 0 W/m 29,3 km/h (5 Bft) 95,74 %
04.01.2017 02:48 3,0 C 3,3 C 1,7 C 97 % 15 lf 1015,3 hPa 0,0 l/m 0 min 0 min 0 W/m 27,2 km/h (4 Bft) 100,00 %
04.01.2017 02:50 3,0 C 3,3 C 1,7 C 97 % 15 lf 1015,3 hPa 0,0 l/m 0 min 0 min 0 W/m 27,2 km/h (4 Bft) 100,00 %
04.01.2017 02:52 3,0 C 3,3 C 1,7 C 97 % 15 lf 1015,2 hPa 0,2 l/m 0 min 0 min 0 W/m 23,0 km/h (4 Bft) 97,87 %
04.01.2017 02:54 3,1 C 3,3 C 1,7 C 97 % 15 lf 1015,2 hPa 0,0 l/m 0 min 0 min 0 W/m 27,2 km/h (4 Bft) 100,00 %
04.01.2017 02:56 3,1 C 3,3 C 1,7 C 97 % 15 lf 1015,1 hPa 0,0 l/m 0 min 2 min 0 W/m 31,4 km/h (5 Bft) 97,87 %
04.01.2017 02:58 3,1 C 3,3 C 1,7 C 97 % 15 lf 1015,0 hPa 0,0 l/m 0 min 0 min 0 W/m 25,1 km/h (4 Bft) 100,00 %
04.01.2017 03:00 3,1 C 3,3 C 1,7 C 97 % 15 lf 1015,0 hPa 0,0 l/m 0 min 0 min 0 W/m 31,4 km/h (5 Bft) 100,00 %
04.01.2017 03:02 3,2 C 3,3 C 1,7 C 97 % 15 lf 1014,9 hPa 0,0 l/m 0 min 0 min 0 W/m 37,7 km/h (5 Bft) 97,87 %
04.01.2017 03:04 3,2 C 3,3 C 1,7 C 97 % 15 lf 1014,9 hPa 0,0 l/m 0 min 0 min 0 W/m 37,7 km/h (5 Bft) 100,00 %
04.01.2017 03:06 3,2 C 3,3 C 1,7 C 97 % 15 lf 1014,7 hPa 0,0 l/m 0 min 0 min 0 W/m 31,4 km/h (5 Bft) 100,00 %
04.01.2017 03:08 3,2 C 3,3 C 2,2 C 97 % 15 lf 1014,8 hPa 0,0 l/m 0 min 2 min 0 W/m 43,9 km/h (6 Bft) 97,87 %
04.01.2017 03:10 3,2 C 3,3 C 2,2 C 97 % 15 lf 1014,7 hPa 0,0 l/m 0 min 0 min 0 W/m 41,8 km/h (6 Bft) 100,00 %
04.01.2017 03:12 3,2 C 3,3 C 2,2 C 97 % 15 lf 1014,6 hPa 0,0 l/m 0 min 2 min 0 W/m 43,9 km/h (6 Bft) 100,00 %
04.01.2017 03:14 3,2 C 3,3 C 2,2 C 97 % 15 lf 1014,6 hPa 0,0 l/m 0 min 2 min 0 W/m 33,5 km/h (5 Bft) 97,87 %
04.01.2017 03:16 3,3 C 3,3 C 2,2 C 97 % 15 lf 1014,6 hPa 0,0 l/m 0 min 2 min 0 W/m 33,5 km/h (5 Bft) 97,87 %
04.01.2017 03:18 3,3 C 3,3 C 2,2 C 97 % 15 lf 1014,6 hPa 0,0 l/m 0 min 0 min 0 W/m 31,4 km/h (5 Bft) 100,00 %
04.01.2017 03:20 3,3 C 3,3 C 2,2 C 97 % 15 lf 1014,6 hPa 0,0 l/m 0 min 0 min 0 W/m 27,2 km/h (4 Bft) 97,87 %
04.01.2017 03:22 3,3 C 3,3 C 2,2 C 97 % 15 lf 1014,5 hPa 0,0 l/m 0 min 2 min 0 W/m 31,4 km/h (5 Bft) 100,00 %
04.01.2017 03:24 3,3 C 3,3 C 2,2 C 97 % 15 lf 1014,5 hPa 0,0 l/m 0 min 2 min 0 W/m 31,4 km/h (5 Bft) 100,00 %
04.01.2017 03:26 3,3 C 3,3 C 2,2 C 97 % 15 lf 1014,5 hPa 0,0 l/m 0 min 2 min 0 W/m 31,4 km/h (5 Bft) 93,62 %
04.01.2017 03:28 3,4 C 3,3 C 2,2 C 97 % 15 lf 1014,6 hPa 0,0 l/m 0 min 2 min 0 W/m 41,8 km/h (6 Bft) 100,00 %
04.01.2017 03:30 3,4 C 3,3 C 2,2 C 97 % 15 lf 1014,5 hPa 0,0 l/m 0 min 2 min 0 W/m 33,5 km/h (5 Bft) 100,00 %
04.01.2017 03:32 3,4 C 3,3 C 2,2 C 97 % 15 lf 1014,5 hPa 0,0 l/m 0 min 2 min 0 W/m 33,5 km/h (5 Bft) 100,00 %
04.01.2017 03:34 3,4 C 3,3 C 2,2 C 97 % 15 lf 1014,6 hPa 0,0 l/m 0 min 2 min 0 W/m 29,3 km/h (5 Bft) 100,00 %
04.01.2017 03:36 3,4 C 3,3 C 2,2 C 97 % 15 lf 1014,5 hPa 0,0 l/m 0 min 2 min 0 W/m 35,6 km/h (5 Bft) 97,87 %
04.01.2017 03:38 3,4 C 3,3 C 2,2 C 97 % 15 lf 1014,5 hPa 0,0 l/m 0 min 2 min 0 W/m 39,7 km/h (6 Bft) 100,00 %
04.01.2017 03:40 3,4 C 3,3 C 2,2 C 97 % 15 lf 1014,5 hPa 0,0 l/m 0 min 2 min 0 W/m 31,4 km/h (5 Bft) 100,00 %
04.01.2017 03:42 3,5 C 3,3 C 2,2 C 97 % 15 lf 1014,5 hPa 0,0 l/m 0 min 2 min 0 W/m 31,4 km/h (5 Bft) 97,83 %
04.01.2017 03:44 3,5 C 3,3 C 2,2 C 97 % 15 lf 1014,5 hPa 0,0 l/m 0 min 2 min 0 W/m 37,7 km/h (5 Bft) 97,87 %
04.01.2017 03:46 3,5 C 3,3 C 2,2 C 97 % 15 lf 1014,5 hPa 0,0 l/m 0 min 2 min 0 W/m 37,7 km/h (5 Bft) 100,00 %
04.01.2017 03:48 3,6 C 3,3 C 2,2 C 97 % 15 lf 1014,5 hPa 0,0 l/m 0 min 2 min 0 W/m 31,4 km/h (5 Bft) 100,00 %
04.01.2017 03:50 3,6 C 3,3 C 2,2 C 97 % 15 lf 1014,5 hPa 0,0 l/m 0 min 2 min 0 W/m 25,1 km/h (4 Bft) 100,00 %
04.01.2017 03:52 3,6 C 3,3 C 2,2 C 97 % 15 lf 1014,5 hPa 0,0 l/m 0 min 2 min 0 W/m 35,6 km/h (5 Bft) 95,65 %
04.01.2017 03:54 3,6 C 3,9 C 2,2 C 97 % 15 lf 1014,4 hPa 0,0 l/m 0 min 2 min 0 W/m 33,5 km/h (5 Bft) 93,62 %
04.01.2017 03:56 3,6 C 3,9 C 2,2 C 97 % 15 lf 1014,4 hPa 0,0 l/m 0 min 2 min 0 W/m 31,4 km/h (5 Bft) 97,87 %
04.01.2017 03:58 3,6 C 3,9 C 2,2 C 97 % 15 lf 1014,4 hPa 0,0 l/m 0 min 2 min 0 W/m 29,3 km/h (5 Bft) 93,62 %
04.01.2017 04:00 3,6 C 3,9 C 2,2 C 97 % 15 lf 1014,3 hPa 0,2 l/m 0 min 2 min 0 W/m 33,5 km/h (5 Bft) 95,74 %
04.01.2017 04:02 3,6 C 3,9 C 2,2 C 97 % 15 lf 1014,3 hPa 0,0 l/m 0 min 2 min 0 W/m 31,4 km/h (5 Bft) 97,14 %
04.01.2017 04:04 3,6 C 3,9 C 2,2 C 97 % 15 lf 1014,3 hPa 0,0 l/m 0 min 2 min 0 W/m 31,4 km/h (5 Bft) 95,65 %
04.01.2017 04:06 3,6 C 3,9 C 2,2 C 97 % 15 lf 1014,3 hPa 0,0 l/m 0 min 2 min 0 W/m 29,3 km/h (5 Bft) 95,74 %
04.01.2017 04:08 3,6 C 3,9 C 2,2 C 97 % 15 lf 1014,3 hPa 0,0 l/m 0 min 2 min 0 W/m 37,7 km/h (5 Bft) 97,87 %
04.01.2017 04:10 3,6 C 3,9 C 2,2 C 97 % 15 lf 1014,3 hPa 0,0 l/m 0 min 2 min 0 W/m 33,5 km/h (5 Bft) 97,87 %
04.01.2017 04:12 3,7 C 3,9 C 2,2 C 97 % 15 lf 1014,2 hPa 0,2 l/m 0 min 2 min 0 W/m 27,2 km/h (4 Bft) 95,74 %
04.01.2017 04:14 3,6 C 3,9 C 2,2 C 97 % 15 lf 1014,1 hPa 0,0 l/m 0 min 2 min 0 W/m 35,6 km/h (5 Bft) 97,87 %
04.01.2017 04:16 3,7 C 3,9 C 2,2 C 98 % 15 lf 1014,1 hPa 0,0 l/m 0 min 2 min 0 W/m 41,8 km/h (6 Bft) 93,48 %
04.01.2017 04:18 3,7 C 3,9 C 2,2 C 98 % 15 lf 1014,1 hPa 0,0 l/m 0 min 2 min 0 W/m 31,4 km/h (5 Bft) 97,87 %
04.01.2017 04:20 3,7 C 3,9 C 2,2 C 98 % 15 lf 1014,2 hPa 0,0 l/m 0 min 2 min 0 W/m 35,6 km/h (5 Bft) 95,74 %
04.01.2017 04:22 3,7 C 3,9 C 2,2 C 98 % 15 lf 1014,1 hPa 0,0 l/m 0 min 2 min 0 W/m 35,6 km/h (5 Bft) 91,49 %
04.01.2017 04:24 3,7 C 3,9 C 2,2 C 98 % 15 lf 1014,0 hPa 0,0 l/m 0 min 2 min 0 W/m 35,6 km/h (5 Bft) 95,74 %
04.01.2017 04:26 3,7 C 3,9 C 2,2 C 98 % 15 lf 1014,0 hPa 0,0 l/m 0 min 2 min 0 W/m 39,7 km/h (6 Bft) 93,62 %
04.01.2017 04:28 3,7 C 3,9 C 2,2 C 98 % 15 lf 1014,0 hPa 0,0 l/m 0 min 2 min 0 W/m 33,5 km/h (5 Bft) 93,48 %
04.01.2017 04:30 3,7 C 3,9 C 2,2 C 98 % 15 lf 1013,9 hPa 0,2 l/m 0 min 2 min 0 W/m 41,8 km/h (6 Bft) 93,62 %
04.01.2017 04:32 3,7 C 3,9 C 2,2 C 98 % 15 lf 1014,0 hPa 0,0 l/m 0 min 2 min 0 W/m 41,8 km/h (6 Bft) 89,36 %
04.01.2017 04:34 3,7 C 3,9 C 2,2 C 98 % 15 lf 1013,8 hPa 0,0 l/m 0 min 2 min 0 W/m 41,8 km/h (6 Bft) 91,49 %
04.01.2017 04:36 3,7 C 3,9 C 2,2 C 98 % 15 lf 1013,7 hPa 0,0 l/m 0 min 2 min 0 W/m 35,6 km/h (5 Bft) 93,62 %
04.01.2017 04:38 3,7 C 3,9 C 2,2 C 98 % 15 lf 1013,8 hPa 0,0 l/m 0 min 2 min 0 W/m 39,7 km/h (6 Bft) 95,74 %
04.01.2017 04:40 3,7 C 3,9 C 2,2 C 98 % 15 lf 1013,8 hPa 0,0 l/m 0 min 2 min 0 W/m 37,7 km/h (5 Bft) 91,30 %
04.01.2017 04:42 3,7 C 3,9 C 2,2 C 98 % 15 lf 1013,7 hPa 0,0 l/m 0 min 2 min 0 W/m 41,8 km/h (6 Bft) 89,36 %
04.01.2017 04:44 3,7 C 3,9 C 2,2 C 98 % 15 lf 1013,7 hPa 0,2 l/m 0 min 2 min 0 W/m 41,8 km/h (6 Bft) 91,49 %
04.01.2017 04:46 3,7 C 3,9 C 2,2 C 98 % 15 lf 1013,7 hPa 0,0 l/m 0 min 2 min 0 W/m 46,0 km/h (6 Bft) 89,36 %
04.01.2017 04:48 3,7 C 3,9 C 2,2 C 98 % 15 lf 1013,7 hPa 0,0 l/m 0 min 2 min 0 W/m 37,7 km/h (5 Bft) 93,62 %
04.01.2017 04:50 3,7 C 3,9 C 2,2 C 98 % 15 lf 1013,7 hPa 0,0 l/m 0 min 2 min 0 W/m 33,5 km/h (5 Bft) 93,48 %
04.01.2017 04:52 3,7 C 3,9 C 2,2 C 98 % 15 lf 1013,7 hPa 0,0 l/m 0 min 2 min 0 W/m 23,0 km/h (4 Bft) 91,49 %
04.01.2017 04:54 3,7 C 3,9 C 2,2 C 98 % 15 lf 1013,6 hPa 0,0 l/m 0 min 2 min 0 W/m 27,2 km/h (4 Bft) 93,62 %
04.01.2017 04:56 3,7 C 3,9 C 2,2 C 98 % 15 lf 1013,6 hPa 0,0 l/m 0 min 2 min 0 W/m 37,7 km/h (5 Bft) 93,62 %
04.01.2017 04:58 3,7 C 3,9 C 2,2 C 98 % 15 lf 1013,5 hPa 0,0 l/m 0 min 2 min 0 W/m 27,2 km/h (4 Bft) 91,49 %
04.01.2017 05:00 3,7 C 3,9 C 2,2 C 98 % 15 lf 1013,5 hPa 0,0 l/m 0 min 2 min 0 W/m 25,1 km/h (4 Bft) 91,49 %
04.01.2017 05:02 3,7 C 3,9 C 2,2 C 98 % 15 lf 1013,6 hPa 0,0 l/m 0 min 2 min 0 W/m 25,1 km/h (4 Bft) 93,48 %
04.01.2017 05:04 3,7 C 3,9 C 2,2 C 98 % 15 lf 1013,5 hPa 0,0 l/m 0 min 2 min 0 W/m 29,3 km/h (5 Bft) 91,49 %
04.01.2017 05:06 3,7 C 3,9 C 2,2 C 98 % 15 lf 1013,4 hPa 0,0 l/m 0 min 2 min 0 W/m 33,5 km/h (5 Bft) 93,62 %
04.01.2017 05:08 3,7 C 3,9 C 2,2 C 98 % 15 lf 1013,2 hPa 0,0 l/m 0 min 2 min 0 W/m 29,3 km/h (5 Bft) 93,62 %
04.01.2017 05:10 3,7 C 3,9 C 2,2 C 98 % 15 lf 1013,2 hPa 0,0 l/m 0 min 2 min 0 W/m 35,6 km/h (5 Bft) 93,62 %
04.01.2017 05:12 3,7 C 3,9 C 2,2 C 98 % 15 lf 1013,3 hPa 0,0 l/m 0 min 2 min 0 W/m 41,8 km/h (6 Bft) 93,62 %
04.01.2017 05:14 3,7 C 3,9 C 2,2 C 98 % 15 lf 1013,3 hPa 0,0 l/m 0 min 2 min 0 W/m 41,8 km/h (6 Bft) 93,48 %
04.01.2017 05:16 3,7 C 3,9 C 2,2 C 98 % 15 lf 1013,2 hPa 0,0 l/m 0 min 2 min 0 W/m 33,5 km/h (5 Bft) 93,62 %
04.01.2017 05:18 3,7 C 3,9 C 2,2 C 98 % 15 lf 1013,3 hPa 0,0 l/m 0 min 2 min 0 W/m 25,1 km/h (4 Bft) 95,74 %
04.01.2017 05:20 3,7 C 3,9 C 2,2 C 98 % 15 lf 1013,3 hPa 0,2 l/m 0 min 2 min 0 W/m 29,3 km/h (5 Bft) 91,49 %
04.01.2017 05:22 3,7 C 3,9 C 2,2 C 98 % 15 lf 1013,4 hPa 0,0 l/m 0 min 2 min 0 W/m 39,7 km/h (6 Bft) 91,49 %
04.01.2017 05:24 3,7 C 3,9 C 2,2 C 98 % 15 lf 1013,3 hPa 0,0 l/m 0 min 2 min 0 W/m 25,1 km/h (4 Bft) 93,62 %
04.01.2017 05:26 3,7 C 3,9 C 2,2 C 98 % 15 lf 1013,4 hPa 0,0 l/m 0 min 2 min 0 W/m 20,9 km/h (4 Bft) 95,65 %
04.01.2017 05:28 3,8 C 3,9 C 2,2 C 98 % 15 lf 1013,4 hPa 0,0 l/m 0 min 2 min 0 W/m 23,0 km/h (4 Bft) 95,74 %
04.01.2017 05:30 3,7 C 3,9 C 2,2 C 98 % 15 lf 1013,2 hPa 0,0 l/m 0 min 2 min 0 W/m 33,5 km/h (5 Bft) 97,87 %
04.01.2017 05:32 3,7 C 3,9 C 2,2 C 98 % 15 lf 1013,3 hPa 0,0 l/m 0 min 2 min 0 W/m 33,5 km/h (5 Bft) 97,87 %
04.01.2017 05:34 3,7 C 3,9 C 2,2 C 98 % 15 lf 1013,4 hPa 0,0 l/m 0 min 2 min 0 W/m 33,5 km/h (5 Bft) 100,00 %
04.01.2017 05:36 3,7 C 3,9 C 2,2 C 98 % 15 lf 1013,3 hPa 0,2 l/m 0 min 2 min 0 W/m 25,1 km/h (4 Bft) 95,74 %
04.01.2017 05:38 3,7 C 3,9 C 2,2 C 98 % 15 lf 1013,3 hPa 0,0 l/m 0 min 2 min 0 W/m 29,3 km/h (5 Bft) 100,00 %
04.01.2017 05:40 3,7 C 3,9 C 2,2 C 98 % 15 lf 1013,2 hPa 0,0 l/m 0 min 2 min 0 W/m 33,5 km/h (5 Bft) 100,00 %
04.01.2017 05:42 3,7 C 3,9 C 2,2 C 98 % 15 lf 1013,2 hPa 0,0 l/m 0 min 2 min 0 W/m 31,4 km/h (5 Bft) 95,74 %
04.01.2017 05:44 3,7 C 3,9 C 2,2 C 98 % 15 lf 1013,2 hPa 0,0 l/m 0 min 2 min 0 W/m 33,5 km/h (5 Bft) 95,74 %
04.01.2017 05:46 3,7 C 3,9 C 2,2 C 98 % 15 lf 1013,3 hPa 0,0 l/m 0 min 2 min 0 W/m 20,9 km/h (4 Bft) 100,00 %
04.01.2017 05:48 3,7 C 3,9 C 2,2 C 98 % 15 lf 1013,4 hPa 0,0 l/m 0 min 2 min 0 W/m 39,7 km/h (6 Bft) 95,74 %
04.01.2017 05:50 3,7 C 3,9 C 2,2 C 98 % 15 lf 1013,3 hPa 0,0 l/m 0 min 2 min 0 W/m 33,5 km/h (5 Bft) 100,00 %
04.01.2017 05:52 3,7 C 3,9 C 2,2 C 98 % 15 lf 1013,2 hPa 0,0 l/m 0 min 2 min 0 W/m 33,5 km/h (5 Bft) 95,74 %
04.01.2017 05:54 3,7 C 3,9 C 2,8 C 98 % 15 lf 1013,3 hPa 0,2 l/m 0 min 2 min 0 W/m 37,7 km/h (5 Bft) 100,00 %
04.01.2017 05:56 3,8 C 3,9 C 2,8 C 98 % 15 lf 1013,3 hPa 0,0 l/m 0 min 2 min 0 W/m 31,4 km/h (5 Bft) 97,87 %
04.01.2017 05:58 3,8 C 3,9 C 2,2 C 98 % 15 lf 1013,3 hPa 0,2 l/m 0 min 2 min 0 W/m 25,1 km/h (4 Bft) 97,87 %
04.01.2017 06:00 3,8 C 3,9 C 2,2 C 98 % 15 lf 1013,4 hPa 0,0 l/m 0 min 2 min 0 W/m 29,3 km/h (5 Bft) 95,65 %
04.01.2017 06:02 3,8 C 3,9 C 2,2 C 98 % 15 lf 1013,4 hPa 0,0 l/m 0 min 2 min 0 W/m 27,2 km/h (4 Bft) 100,00 %
04.01.2017 06:04 3,8 C 3,9 C 2,2 C 98 % 15 lf 1013,3 hPa 0,0 l/m 0 min 2 min 0 W/m 31,4 km/h (5 Bft) 97,87 %
04.01.2017 06:06 3,8 C 3,9 C 2,8 C 98 % 15 lf 1013,1 hPa 0,2 l/m 0 min 2 min 0 W/m 33,5 km/h (5 Bft) 97,87 %
04.01.2017 06:08 3,8 C 3,9 C 2,8 C 98 % 15 lf 1013,1 hPa 0,0 l/m 0 min 2 min 0 W/m 25,1 km/h (4 Bft) 93,62 %
04.01.2017 06:10 3,8 C 3,9 C 2,8 C 98 % 15 lf 1013,0 hPa 0,2 l/m 0 min 2 min 0 W/m 37,7 km/h (5 Bft) 97,87 %
04.01.2017 06:12 3,8 C 3,9 C 2,8 C 98 % 15 lf 1013,0 hPa 0,0 l/m 0 min 2 min 0 W/m 33,5 km/h (5 Bft) 95,65 %
04.01.2017 06:14 3,8 C 3,9 C 2,8 C 98 % 15 lf 1013,0 hPa 0,0 l/m 0 min 2 min 0 W/m 31,4 km/h (5 Bft) 95,74 %
04.01.2017 06:16 3,8 C 3,9 C 2,8 C 98 % 15 lf 1012,9 hPa 0,0 l/m 0 min 2 min 0 W/m 37,7 km/h (5 Bft) 95,74 %
04.01.2017 06:18 3,8 C 3,9 C 2,8 C 98 % 15 lf 1012,9 hPa 0,0 l/m 0 min 2 min 0 W/m 23,0 km/h (4 Bft) 97,87 %
04.01.2017 06:20 3,8 C 3,9 C 2,8 C 98 % 15 lf 1012,8 hPa 0,0 l/m 0 min 2 min 0 W/m 27,2 km/h (4 Bft) 97,87 %
04.01.2017 06:22 3,8 C 3,9 C 2,8 C 98 % 15 lf 1012,7 hPa 0,0 l/m 0 min 2 min 0 W/m 29,3 km/h (5 Bft) 95,74 %
04.01.2017 06:24 3,8 C 3,9 C 2,8 C 98 % 15 lf 1012,7 hPa 0,0 l/m 0 min 2 min 0 W/m 37,7 km/h (5 Bft) 97,83 %
04.01.2017 06:26 3,8 C 3,9 C 2,8 C 98 % 15 lf 1012,6 hPa 0,0 l/m 0 min 2 min 0 W/m 39,7 km/h (6 Bft) 95,74 %
04.01.2017 06:28 3,8 C 3,9 C 2,8 C 98 % 15 lf 1012,6 hPa 0,0 l/m 0 min 2 min 0 W/m 35,6 km/h (5 Bft) 93,62 %
04.01.2017 06:30 3,8 C 3,9 C 2,8 C 98 % 15 lf 1012,5 hPa 0,0 l/m 0 min 2 min 0 W/m 35,6 km/h (5 Bft) 100,00 %
04.01.2017 06:32 3,8 C 3,9 C 2,8 C 98 % 15 lf 1012,6 hPa 0,0 l/m 0 min 2 min 0 W/m 35,6 km/h (5 Bft) 97,87 %
04.01.2017 06:34 3,9 C 3,9 C 2,8 C 98 % 15 lf 1012,5 hPa 0,0 l/m 0 min 2 min 0 W/m 37,7 km/h (5 Bft) 97,87 %
04.01.2017 06:36 3,8 C 3,9 C 2,8 C 98 % 15 lf 1012,5 hPa 0,0 l/m 0 min 2 min 0 W/m 33,5 km/h (5 Bft) 100,00 %
04.01.2017 06:38 3,9 C 3,9 C 2,8 C 98 % 15 lf 1012,6 hPa 0,0 l/m 0 min 2 min 0 W/m 31,4 km/h (5 Bft) 100,00 %
04.01.2017 06:40 3,9 C 3,9 C 2,8 C 98 % 15 lf 1012,6 hPa 0,0 l/m 0 min 2 min 0 W/m 27,2 km/h (4 Bft) 100,00 %
04.01.2017 06:42 3,9 C 3,9 C 2,8 C 98 % 15 lf 1012,6 hPa 0,0 l/m 0 min 2 min 0 W/m 25,1 km/h (4 Bft) 100,00 %
04.01.2017 06:44 3,9 C 3,9 C 2,8 C 98 % 15 lf 1012,7 hPa 0,0 l/m 0 min 2 min 0 W/m 23,0 km/h (4 Bft) 97,87 %
04.01.2017 06:46 3,9 C 3,9 C 2,8 C 98 % 15 lf 1012,7 hPa 0,0 l/m 0 min 0 min 0 W/m 20,9 km/h (4 Bft) 100,00 %
04.01.2017 06:48 3,9 C 3,9 C 2,8 C 98 % 15 lf 1012,7 hPa 0,0 l/m 0 min 2 min 0 W/m 29,3 km/h (5 Bft) 97,83 %
04.01.2017 06:50 3,9 C 3,9 C 2,8 C 98 % 15 lf 1012,7 hPa 0,0 l/m 0 min 2 min 0 W/m 25,1 km/h (4 Bft) 100,00 %
04.01.2017 06:52 3,9 C 3,9 C 2,8 C 98 % 15 lf 1012,7 hPa 0,0 l/m 0 min 0 min 0 W/m 27,2 km/h (4 Bft) 95,74 %
04.01.2017 06:54 3,9 C 3,9 C 2,8 C 98 % 15 lf 1012,7 hPa 0,0 l/m 0 min 0 min 0 W/m 23,0 km/h (4 Bft) 100,00 %
04.01.2017 06:56 4,0 C 3,9 C 2,8 C 98 % 15 lf 1012,7 hPa 0,0 l/m 0 min 0 min 0 W/m 25,1 km/h (4 Bft) 100,00 %
04.01.2017 06:58 4,0 C 3,9 C 2,8 C 98 % 15 lf 1012,8 hPa 0,0 l/m 0 min 0 min 0 W/m 16,7 km/h (3 Bft) 95,74 %
04.01.2017 07:00 4,0 C 4,4 C 2,8 C 98 % 15 lf 1012,7 hPa 0,0 l/m 0 min 2 min 0 W/m 25,1 km/h (4 Bft) 100,00 %
04.01.2017 07:02 4,1 C 4,4 C 2,8 C 98 % 15 lf 1012,8 hPa 0,2 l/m 0 min 2 min 0 W/m 27,2 km/h (4 Bft) 91,49 %
04.01.2017 07:04 4,1 C 4,4 C 2,8 C 98 % 15 lf 1012,7 hPa 0,0 l/m 0 min 2 min 0 W/m 25,1 km/h (4 Bft) 100,00 %
04.01.2017 07:06 4,1 C 4,4 C 2,8 C 98 % 15 lf 1012,6 hPa 0,0 l/m 0 min 2 min 0 W/m 31,4 km/h (5 Bft) 100,00 %
04.01.2017 07:08 4,1 C 4,4 C 2,8 C 98 % 15 lf 1012,7 hPa 0,0 l/m 0 min 2 min 0 W/m 33,5 km/h (5 Bft) 97,87 %
04.01.2017 07:10 4,1 C 4,4 C 2,8 C 98 % 15 lf 1012,7 hPa 0,0 l/m 0 min 2 min 0 W/m 29,3 km/h (5 Bft) 97,87 %
04.01.2017 07:12 4,1 C 4,4 C 2,8 C 98 % 15 lf 1012,6 hPa 0,0 l/m 0 min 2 min 0 W/m 31,4 km/h (5 Bft) 97,83 %
04.01.2017 07:14 4,2 C 4,4 C 2,8 C 98 % 15 lf 1012,7 hPa 0,0 l/m 0 min 0 min 0 W/m 29,3 km/h (5 Bft) 91,49 %
04.01.2017 07:16 4,2 C 4,4 C 2,8 C 98 % 15 lf 1012,6 hPa 0,0 l/m 0 min 0 min 0 W/m 37,7 km/h (5 Bft) 97,87 %
04.01.2017 07:18 4,2 C 4,4 C 2,8 C 98 % 15 lf 1012,5 hPa 0,0 l/m 0 min 2 min 0 W/m 27,2 km/h (4 Bft) 91,49 %
04.01.2017 07:20 4,2 C 4,4 C 2,8 C 98 % 15 lf 1012,7 hPa 0,0 l/m 0 min 2 min 0 W/m 29,3 km/h (5 Bft) 97,87 %
04.01.2017 07:22 4,2 C 4,4 C 2,8 C 98 % 15 lf 1012,7 hPa 0,0 l/m 0 min 2 min 0 W/m 20,9 km/h (4 Bft) 97,87 %
04.01.2017 07:24 4,2 C 4,4 C 2,8 C 98 % 15 lf 1012,8 hPa 0,0 l/m 0 min 2 min 0 W/m 16,7 km/h (3 Bft) 97,83 %
04.01.2017 07:26 4,2 C 4,4 C 2,8 C 98 % 15 lf 1012,7 hPa 0,0 l/m 0 min 2 min 0 W/m 20,9 km/h (4 Bft) 95,74 %
04.01.2017 07:28 4,2 C 4,4 C 2,8 C 98 % 15 lf 1012,8 hPa 0,0 l/m 0 min 2 min 0 W/m 14,6 km/h (3 Bft) 97,87 %
04.01.2017 07:30 4,2 C 4,4 C 2,8 C 98 % 15 lf 1012,8 hPa 0,2 l/m 0 min 2 min 0 W/m 18,8 km/h (3 Bft) 95,74 %
04.01.2017 07:32 4,2 C 4,4 C 2,8 C 98 % 15 lf 1012,8 hPa 0,0 l/m 0 min 2 min 0 W/m 16,7 km/h (3 Bft) 97,87 %
04.01.2017 07:34 4,2 C 4,4 C 2,8 C 98 % 15 lf 1012,7 hPa 0,4 l/m 0 min 2 min 0 W/m 16,7 km/h (3 Bft) 95,65 %
04.01.2017 07:36 4,2 C 4,4 C 2,8 C 98 % 15 lf 1012,8 hPa 0,0 l/m 0 min 2 min 0 W/m 23,0 km/h (4 Bft) 91,49 %
04.01.2017 07:38 4,3 C 4,4 C 2,8 C 98 % 15 lf 1012,7 hPa 0,0 l/m 0 min 2 min 0 W/m 16,7 km/h (3 Bft) 97,87 %
04.01.2017 07:40 4,3 C 4,4 C 2,8 C 98 % 15 lf 1012,7 hPa 0,0 l/m 0 min 2 min 0 W/m 16,7 km/h (3 Bft) 93,62 %
04.01.2017 07:42 4,3 C 4,4 C 2,8 C 98 % 15 lf 1012,7 hPa 0,0 l/m 0 min 2 min 0 W/m 12,6 km/h (3 Bft) 93,62 %
04.01.2017 07:44 4,3 C 4,4 C 2,8 C 98 % 15 lf 1012,6 hPa 0,0 l/m 0 min 0 min 0 W/m 18,8 km/h (3 Bft) 91,49 %
04.01.2017 07:46 4,3 C 4,4 C 3,3 C 98 % 15 lf 1012,6 hPa 0,0 l/m 0 min 0 min 0 W/m 25,1 km/h (4 Bft) 93,48 %
04.01.2017 07:48 4,3 C 4,4 C 2,8 C 98 % 15 lf 1012,5 hPa 0,0 l/m 0 min 0 min 0 W/m 20,9 km/h (4 Bft) 93,62 %
04.01.2017 07:50 4,3 C 4,4 C 3,3 C 98 % 15 lf 1012,6 hPa 0,0 l/m 0 min 0 min 0 W/m 25,1 km/h (4 Bft) 91,49 %
04.01.2017 07:52 4,3 C 4,4 C 3,3 C 98 % 15 lf 1012,6 hPa 0,0 l/m 0 min 0 min 0 W/m 18,8 km/h (3 Bft) 93,62 %
04.01.2017 07:54 4,4 C 4,4 C 3,3 C 98 % 15 lf 1012,7 hPa 0,0 l/m 0 min 0 min 0 W/m 23,0 km/h (4 Bft) 93,62 %
04.01.2017 07:56 4,4 C 4,4 C 3,3 C 98 % 15 lf 1012,6 hPa 0,0 l/m 0 min 0 min 0 W/m 16,7 km/h (3 Bft) 95,74 %
04.01.2017 07:58 4,4 C 4,4 C 3,3 C 98 % 15 lf 1012,6 hPa 0,0 l/m 0 min 0 min 0 W/m 20,9 km/h (4 Bft) 93,48 %
04.01.2017 08:00 4,4 C 4,4 C 3,3 C 98 % 15 lf 1012,6 hPa 0,0 l/m 0 min 0 min 0 W/m 25,1 km/h (4 Bft) 95,74 %
04.01.2017 08:02 4,4 C 4,4 C 3,3 C 98 % 15 lf 1012,5 hPa 0,0 l/m 0 min 0 min 0 W/m 23,0 km/h (4 Bft) 93,62 %
04.01.2017 08:04 4,5 C 5,0 C 3,3 C 98 % 15 lf 1012,6 hPa 0,0 l/m 0 min 0 min 0 W/m 20,9 km/h (4 Bft) 95,74 %
04.01.2017 08:06 4,6 C 5,0 C 3,3 C 98 % 15 lf 1012,6 hPa 0,0 l/m 0 min 2 min 0 W/m 25,1 km/h (4 Bft) 95,74 %
04.01.2017 08:08 4,6 C 5,0 C 3,3 C 98 % 15 lf 1012,7 hPa 0,0 l/m 0 min 0 min 0 W/m 27,2 km/h (4 Bft) 93,62 %
04.01.2017 08:10 4,7 C 5,0 C 3,3 C 98 % 15 lf 1012,8 hPa 0,0 l/m 0 min 0 min 0 W/m 29,3 km/h (5 Bft) 91,30 %
04.01.2017 08:12 4,7 C 5,0 C 3,3 C 98 % 15 lf 1012,8 hPa 0,0 l/m 0 min 0 min 0 W/m 25,1 km/h (4 Bft) 95,74 %
04.01.2017 08:14 4,7 C 5,0 C 3,3 C 98 % 15 lf 1012,7 hPa 0,0 l/m 0 min 0 min 0 W/m 20,9 km/h (4 Bft) 93,62 %
04.01.2017 08:16 4,7 C 5,0 C 3,3 C 98 % 15 lf 1012,8 hPa 0,0 l/m 0 min 0 min 0 W/m 23,0 km/h (4 Bft) 95,74 %
04.01.2017 08:18 4,8 C 5,0 C 3,3 C 98 % 15 lf 1012,8 hPa 0,0 l/m 0 min 0 min 0 W/m 27,2 km/h (4 Bft) 91,49 %
04.01.2017 08:20 4,8 C 5,0 C 3,3 C 98 % 15 lf 1012,7 hPa 0,0 l/m 0 min 0 min 0 W/m 23,0 km/h (4 Bft) 97,87 %
04.01.2017 08:22 4,8 C 5,0 C 3,3 C 98 % 15 lf 1012,8 hPa 0,0 l/m 0 min 0 min 0 W/m 20,9 km/h (4 Bft) 95,65 %
04.01.2017 08:24 4,8 C 5,0 C 3,3 C 98 % 15 lf 1012,7 hPa 0,0 l/m 0 min 0 min 0 W/m 20,9 km/h (4 Bft) 95,74 %
04.01.2017 08:26 4,8 C 5,0 C 3,3 C 98 % 15 lf 1012,7 hPa 0,0 l/m 0 min 0 min 0 W/m 18,8 km/h (3 Bft) 87,23 %
04.01.2017 08:28 4,8 C 5,0 C 3,3 C 98 % 15 lf 1012,7 hPa 0,0 l/m 0 min 0 min 0 W/m 16,7 km/h (3 Bft) 95,74 %
04.01.2017 08:30 4,9 C 5,0 C 3,3 C 98 % 15 lf 1012,8 hPa 0,0 l/m 0 min 0 min 0 W/m 20,9 km/h (4 Bft) 97,87 %
04.01.2017 08:32 4,9 C 5,0 C 3,3 C 98 % 15 lf 1012,8 hPa 0,0 l/m 0 min 0 min 0 W/m 16,7 km/h (3 Bft) 97,87 %
04.01.2017 08:34 4,9 C 5,0 C 3,3 C 99 % 15 lf 1012,9 hPa 0,0 l/m 0 min 0 min 0 W/m 20,9 km/h (4 Bft) 95,65 %
04.01.2017 08:36 4,9 C 5,0 C 3,3 C 99 % 15 lf 1012,8 hPa 0,0 l/m 0 min 0 min 2 W/m 20,9 km/h (4 Bft) 95,74 %
04.01.2017 08:38 4,9 C 5,0 C 3,3 C 99 % 15 lf 1012,9 hPa 0,0 l/m 0 min 0 min 2 W/m 23,0 km/h (4 Bft) 97,87 %
04.01.2017 08:40 4,9 C 5,0 C 3,3 C 99 % 15 lf 1012,9 hPa 0,0 l/m 0 min 0 min 0 W/m 12,6 km/h (3 Bft) 97,87 %
04.01.2017 08:42 4,9 C 5,0 C 3,3 C 99 % 15 lf 1012,9 hPa 0,0 l/m 0 min 0 min 0 W/m 18,8 km/h (3 Bft) 89,36 %
04.01.2017 08:44 4,9 C 5,0 C 3,3 C 99 % 15 lf 1012,8 hPa 0,0 l/m 0 min 0 min 3 W/m 25,1 km/h (4 Bft) 95,65 %
04.01.2017 08:46 4,9 C 5,0 C 3,3 C 99 % 15 lf 1013,0 hPa 0,0 l/m 0 min 0 min 2 W/m 20,9 km/h (4 Bft) 91,49 %
04.01.2017 08:48 4,9 C 5,0 C 3,3 C 99 % 15 lf 1013,0 hPa 0,0 l/m 0 min 0 min 0 W/m 23,0 km/h (4 Bft) 95,74 %
04.01.2017 08:50 4,9 C 5,0 C 3,3 C 99 % 15 lf 1013,0 hPa 0,0 l/m 0 min 0 min 5 W/m 18,8 km/h (3 Bft) 95,74 %
04.01.2017 08:52 4,9 C 5,0 C 3,3 C 99 % 15 lf 1013,1 hPa 0,0 l/m 0 min 0 min 5 W/m 14,6 km/h (3 Bft) 95,74 %
04.01.2017 08:54 4,9 C 5,0 C 3,3 C 99 % 15 lf 1013,1 hPa 0,0 l/m 0 min 0 min 6 W/m 20,9 km/h (4 Bft) 95,74 %
04.01.2017 08:56 4,9 C 5,0 C 3,3 C 99 % 15 lf 1013,2 hPa 0,0 l/m 0 min 0 min 7 W/m 12,6 km/h (3 Bft) 95,65 %
04.01.2017 08:58 4,9 C 5,0 C 3,3 C 99 % 15 lf 1013,2 hPa 0,0 l/m 0 min 0 min 9 W/m 18,8 km/h (3 Bft) 95,74 %
04.01.2017 09:00 4,9 C 5,0 C 3,3 C 99 % 15 lf 1013,2 hPa 0,0 l/m 0 min 0 min 9 W/m 18,8 km/h (3 Bft) 95,74 %
04.01.2017 09:02 4,9 C 5,0 C 3,3 C 99 % 15 lf 1013,2 hPa 0,0 l/m 0 min 0 min 12 W/m 27,2 km/h (4 Bft) 96,00 %
04.01.2017 09:04 4,9 C 5,0 C 3,3 C 99 % 15 lf 1013,2 hPa 0,0 l/m 0 min 0 min 13 W/m 23,0 km/h (4 Bft) 97,87 %
04.01.2017 09:06 4,9 C 5,0 C 3,3 C 99 % 15 lf 1013,2 hPa 0,0 l/m 0 min 0 min 12 W/m 20,9 km/h (4 Bft) 97,87 %
04.01.2017 09:08 4,9 C 5,0 C 3,3 C 99 % 15 lf 1013,2 hPa 0,0 l/m 0 min 0 min 14 W/m 23,0 km/h (4 Bft) 97,83 %
04.01.2017 09:10 4,9 C 5,0 C 3,3 C 99 % 15 lf 1013,2 hPa 0,0 l/m 0 min 0 min 15 W/m 25,1 km/h (4 Bft) 97,87 %
04.01.2017 09:12 4,9 C 5,0 C 3,3 C 99 % 15 lf 1013,2 hPa 0,0 l/m 0 min 0 min 18 W/m 18,8 km/h (3 Bft) 97,87 %
04.01.2017 09:14 4,9 C 5,0 C 3,3 C 99 % 15 lf 1013,2 hPa 0,0 l/m 0 min 0 min 17 W/m 29,3 km/h (5 Bft) 97,87 %
04.01.2017 09:16 4,9 C 5,0 C 3,3 C 99 % 15 lf 1013,2 hPa 0,0 l/m 0 min 0 min 17 W/m 16,7 km/h (3 Bft) 93,62 %
04.01.2017 09:18 4,9 C 5,0 C 3,3 C 99 % 15 lf 1013,1 hPa 0,0 l/m 0 min 0 min 20 W/m 20,9 km/h (4 Bft) 97,83 %
04.01.2017 09:20 4,9 C 5,0 C 3,3 C 99 % 15 lf 1013,1 hPa 0,0 l/m 0 min 0 min 20 W/m 20,9 km/h (4 Bft) 95,74 %
04.01.2017 09:22 4,9 C 5,0 C 3,3 C 99 % 15 lf 1013,2 hPa 0,0 l/m 0 min 0 min 22 W/m 23,0 km/h (4 Bft) 93,62 %
04.01.2017 09:24 4,9 C 5,0 C 3,3 C 99 % 15 lf 1013,2 hPa 0,0 l/m 0 min 0 min 24 W/m 18,8 km/h (3 Bft) 95,74 %
04.01.2017 09:26 4,9 C 5,0 C 3,3 C 98 % 15 lf 1013,2 hPa 0,0 l/m 0 min 0 min 25 W/m 18,8 km/h (3 Bft) 97,87 %
04.01.2017 09:28 4,9 C 5,0 C 3,3 C 98 % 15 lf 1013,3 hPa 0,0 l/m 0 min 0 min 23 W/m 29,3 km/h (5 Bft) 97,87 %
04.01.2017 09:30 4,9 C 5,0 C 3,3 C 98 % 15 lf 1013,3 hPa 0,0 l/m 0 min 0 min 28 W/m 18,8 km/h (3 Bft) 97,83 %
04.01.2017 09:32 4,9 C 5,0 C 3,3 C 98 % 15 lf 1013,3 hPa 0,0 l/m 0 min 0 min 31 W/m 20,9 km/h (4 Bft) 91,49 %
04.01.2017 09:34 4,9 C 5,0 C 3,3 C 98 % 15 lf 1013,3 hPa 0,0 l/m 0 min 0 min 38 W/m 14,6 km/h (3 Bft) 93,62 %
04.01.2017 09:36 4,8 C 5,0 C 3,3 C 98 % 15 lf 1013,4 hPa 0,0 l/m 0 min 0 min 43 W/m 23,0 km/h (4 Bft) 97,87 %
04.01.2017 09:38 4,8 C 5,0 C 3,3 C 98 % 15 lf 1013,4 hPa 0,0 l/m 0 min 0 min 46 W/m 31,4 km/h (5 Bft) 91,49 %
04.01.2017 09:40 4,8 C 5,0 C 3,3 C 98 % 15 lf 1013,5 hPa 0,0 l/m 0 min 0 min 51 W/m 20,9 km/h (4 Bft) 97,87 %
04.01.2017 09:42 4,8 C 5,0 C 3,3 C 98 % 15 lf 1013,4 hPa 0,0 l/m 0 min 0 min 49 W/m 23,0 km/h (4 Bft) 95,65 %
04.01.2017 09:44 4,8 C 5,0 C 3,3 C 98 % 15 lf 1013,4 hPa 0,0 l/m 0 min 0 min 45 W/m 23,0 km/h (4 Bft) 95,74 %
04.01.2017 09:46 4,8 C 5,0 C 3,3 C 98 % 15 lf 1013,4 hPa 0,0 l/m 0 min 0 min 46 W/m 20,9 km/h (4 Bft) 97,87 %
04.01.2017 09:48 4,7 C 5,0 C 3,3 C 98 % 15 lf 1013,3 hPa 0,0 l/m 0 min 0 min 46 W/m 16,7 km/h (3 Bft) 91,49 %
04.01.2017 09:50 4,7 C 5,0 C 3,3 C 98 % 15 lf 1013,3 hPa 0,0 l/m 0 min 0 min 44 W/m 18,8 km/h (3 Bft) 91,49 %
04.01.2017 09:52 4,7 C 5,0 C 3,3 C 98 % 15 lf 1013,5 hPa 0,0 l/m 0 min 0 min 41 W/m 18,8 km/h (3 Bft) 95,74 %
04.01.2017 09:54 4,7 C 5,0 C 3,3 C 98 % 15 lf 1013,4 hPa 0,0 l/m 0 min 0 min 40 W/m 20,9 km/h (4 Bft) 91,30 %
04.01.2017 09:56 4,7 C 5,0 C 3,3 C 98 % 15 lf 1013,5 hPa 0,0 l/m 0 min 0 min 42 W/m 20,9 km/h (4 Bft) 95,74 %
04.01.2017 09:58 4,7 C 5,0 C 3,3 C 98 % 15 lf 1013,5 hPa 0,0 l/m 0 min 0 min 43 W/m 20,9 km/h (4 Bft) 93,62 %
04.01.2017 10:00 4,7 C 5,0 C 3,3 C 98 % 15 lf 1013,5 hPa 0,0 l/m 0 min 0 min 44 W/m 18,8 km/h (3 Bft) 95,12 %
04.01.2017 10:02 4,7 C 5,0 C 3,3 C 98 % 15 lf 1013,5 hPa 0,0 l/m 0 min 0 min 44 W/m 12,6 km/h (3 Bft) 89,36 %
04.01.2017 10:04 4,7 C 5,0 C 3,3 C 98 % 15 lf 1013,5 hPa 0,0 l/m 0 min 0 min 44 W/m 23,0 km/h (4 Bft) 95,74 %
04.01.2017 10:06 4,7 C 5,0 C 3,3 C 98 % 15 lf 1013,5 hPa 0,0 l/m 0 min 0 min 48 W/m 18,8 km/h (3 Bft) 95,74 %
04.01.2017 10:08 4,7 C 5,0 C 3,3 C 98 % 15 lf 1013,5 hPa 0,0 l/m 0 min 0 min 51 W/m 18,8 km/h (3 Bft) 91,84 %
04.01.2017 10:10 4,7 C 5,0 C 3,3 C 98 % 15 lf 1013,5 hPa 0,0 l/m 0 min 0 min 53 W/m 12,6 km/h (3 Bft) 96,00 %
04.01.2017 10:12 4,7 C 5,0 C 2,8 C 98 % 15 lf 1013,5 hPa 0,0 l/m 0 min 0 min 55 W/m 14,6 km/h (3 Bft) 97,87 %
04.01.2017 10:14 4,7 C 5,0 C 2,8 C 98 % 15 lf 1013,6 hPa 0,0 l/m 0 min 0 min 58 W/m 18,8 km/h (3 Bft) 95,74 %
04.01.2017 10:16 4,7 C 5,0 C 2,8 C 98 % 15 lf 1013,6 hPa 0,0 l/m 0 min 0 min 63 W/m 10,5 km/h (2 Bft) 94,29 %
04.01.2017 10:18 4,7 C 5,0 C 2,8 C 98 % 15 lf 1013,7 hPa 0,0 l/m 0 min 0 min 71 W/m 18,8 km/h (3 Bft) 96,36 %
04.01.2017 10:20 4,7 C 5,0 C 2,8 C 98 % 15 lf 1013,7 hPa 0,0 l/m 0 min 0 min 76 W/m 20,9 km/h (4 Bft) 95,74 %
04.01.2017 10:22 4,7 C 5,0 C 2,8 C 98 % 15 lf 1013,7 hPa 0,0 l/m 0 min 0 min 81 W/m 16,7 km/h (3 Bft) 97,87 %
04.01.2017 10:24 4,7 C 5,6 C 2,8 C 98 % 15 lf 1013,7 hPa 0,0 l/m 0 min 0 min 85 W/m 12,6 km/h (3 Bft) 98,00 %
04.01.2017 10:26 4,7 C 5,6 C 2,8 C 98 % 15 lf 1013,7 hPa 0,0 l/m 0 min 0 min 89 W/m 14,6 km/h (3 Bft) 95,74 %
04.01.2017 10:28 4,7 C 5,6 C 2,8 C 98 % 15 lf 1013,7 hPa 0,0 l/m 0 min 0 min 92 W/m 14,6 km/h (3 Bft) 95,65 %
04.01.2017 10:30 4,7 C 5,6 C 3,3 C 98 % 15 lf 1013,6 hPa 0,0 l/m 2 min 0 min 99 W/m 18,8 km/h (3 Bft) 95,74 %
04.01.2017 10:32 4,7 C 5,6 C 3,3 C 98 % 15 lf 1013,6 hPa 0,0 l/m 2 min 0 min 113 W/m 16,7 km/h (3 Bft) 100,00 %
04.01.2017 10:34 4,7 C 5,6 C 3,3 C 98 % 15 lf 1013,6 hPa 0,0 l/m 2 min 0 min 121 W/m 20,9 km/h (4 Bft) 96,00 %
04.01.2017 10:36 4,7 C 5,6 C 3,3 C 98 % 15 lf 1013,6 hPa 0,0 l/m 2 min 0 min 129 W/m 25,1 km/h (4 Bft) 97,87 %
04.01.2017 10:38 4,8 C 6,1 C 3,9 C 98 % 15 lf 1013,6 hPa 0,0 l/m 2 min 0 min 142 W/m 20,9 km/h (4 Bft) 96,00 %
04.01.2017 10:40 4,8 C 6,1 C 3,9 C 98 % 15 lf 1013,6 hPa 0,0 l/m 2 min 0 min 112 W/m 14,6 km/h (3 Bft) 95,65 %
04.01.2017 10:42 4,8 C 5,6 C 3,9 C 98 % 15 lf 1013,6 hPa 0,0 l/m 0 min 0 min 67 W/m 14,6 km/h (3 Bft) 95,74 %
04.01.2017 10:44 4,8 C 5,6 C 3,3 C 98 % 15 lf 1013,7 hPa 0,0 l/m 0 min 0 min 34 W/m 29,3 km/h (5 Bft) 97,56 %
04.01.2017 10:46 4,8 C 5,0 C 3,3 C 98 % 15 lf 1013,8 hPa 0,0 l/m 0 min 2 min 24 W/m 20,9 km/h (4 Bft) 98,00 %
04.01.2017 10:48 4,9 C 5,0 C 3,3 C 98 % 15 lf 1013,8 hPa 0,0 l/m 0 min 2 min 22 W/m 20,9 km/h (4 Bft) 93,62 %
04.01.2017 10:50 4,9 C 5,0 C 3,3 C 98 % 15 lf 1013,8 hPa 0,0 l/m 0 min 2 min 26 W/m 18,8 km/h (3 Bft) 96,00 %
04.01.2017 10:52 4,9 C 5,0 C 3,3 C 98 % 15 lf 1013,9 hPa 0,0 l/m 0 min 2 min 36 W/m 39,7 km/h (6 Bft) 97,83 %
04.01.2017 10:54 4,8 C 5,0 C 3,3 C 98 % 15 lf 1013,9 hPa 0,0 l/m 0 min 2 min 47 W/m 35,6 km/h (5 Bft) 97,87 %
04.01.2017 10:56 4,8 C 5,0 C 3,3 C 98 % 15 lf 1014,0 hPa 0,0 l/m 0 min 2 min 48 W/m 23,0 km/h (4 Bft) 97,87 %
04.01.2017 10:58 4,8 C 5,0 C 2,8 C 98 % 15 lf 1014,0 hPa 0,0 l/m 0 min 0 min 52 W/m 20,9 km/h (4 Bft) 97,87 %
04.01.2017 11:00 4,8 C 5,0 C 2,8 C 98 % 15 lf 1014,0 hPa 0,0 l/m 0 min 0 min 57 W/m 25,1 km/h (4 Bft) 95,74 %
04.01.2017 11:02 4,7 C 5,0 C 2,8 C 98 % 15 lf 1014,0 hPa 0,0 l/m 0 min 0 min 71 W/m 33,5 km/h (5 Bft) 97,87 %
04.01.2017 11:04 4,7 C 5,0 C 2,8 C 98 % 15 lf 1014,0 hPa 0,0 l/m 0 min 0 min 94 W/m 23,0 km/h (4 Bft) 97,56 %
04.01.2017 11:06 4,7 C 5,0 C 2,8 C 97 % 15 lf 1014,0 hPa 0,0 l/m 0 min 0 min 107 W/m 23,0 km/h (4 Bft) 97,96 %
04.01.2017 11:08 4,7 C 5,6 C 2,8 C 97 % 15 lf 1014,0 hPa 0,0 l/m 2 min 0 min 176 W/m 18,8 km/h (3 Bft) 97,37 %
04.01.2017 11:10 4,7 C 6,1 C 2,8 C 97 % 15 lf 1014,0 hPa 0,0 l/m 2 min 0 min 172 W/m 20,9 km/h (4 Bft) 94,34 %
04.01.2017 11:12 4,6 C 6,1 C 2,8 C 97 % 15 lf 1014,0 hPa 0,0 l/m 2 min 0 min 146 W/m 29,3 km/h (5 Bft) 97,87 %
04.01.2017 11:14 4,6 C 6,1 C 2,8 C 97 % 15 lf 1014,1 hPa 0,0 l/m 2 min 0 min 138 W/m 23,0 km/h (4 Bft) 98,00 %
04.01.2017 11:16 4,6 C 6,1 C 2,8 C 97 % 15 lf 1014,0 hPa 0,0 l/m 2 min 2 min 151 W/m 41,8 km/h (6 Bft) 95,92 %
04.01.2017 11:18 4,6 C 6,7 C 3,3 C 96 % 15 lf 1014,0 hPa 0,0 l/m 2 min 2 min 206 W/m 31,4 km/h (5 Bft) 97,87 %
04.01.2017 11:20 4,7 C 6,7 C 3,3 C 96 % 15 lf 1014,0 hPa 0,0 l/m 2 min 0 min 185 W/m 29,3 km/h (5 Bft) 95,74 %
04.01.2017 11:22 4,7 C 6,7 C 3,3 C 96 % 15 lf 1014,0 hPa 0,0 l/m 0 min 2 min 117 W/m 23,0 km/h (4 Bft) 97,87 %
04.01.2017 11:24 4,7 C 6,1 C 3,3 C 96 % 15 lf 1013,9 hPa 0,0 l/m 0 min 0 min 89 W/m 23,0 km/h (4 Bft) 95,12 %
04.01.2017 11:26 4,8 C 5,6 C 3,3 C 96 % 15 lf 1013,9 hPa 0,0 l/m 0 min 0 min 65 W/m 20,9 km/h (4 Bft) 97,87 %
04.01.2017 11:28 4,8 C 5,6 C 2,8 C 95 % 15 lf 1013,9 hPa 0,0 l/m 0 min 2 min 65 W/m 29,3 km/h (5 Bft) 100,00 %
04.01.2017 11:30 4,8 C 5,0 C 2,8 C 95 % 14 lf 1013,9 hPa 0,0 l/m 0 min 0 min 66 W/m 23,0 km/h (4 Bft) 95,65 %
04.01.2017 11:32 4,8 C 5,6 C 2,8 C 95 % 12 lf 1013,9 hPa 0,0 l/m 0 min 0 min 88 W/m 37,7 km/h (5 Bft) 98,00 %
04.01.2017 11:34 4,8 C 6,1 C 2,8 C 95 % 6 lf 1013,9 hPa 0,0 l/m 0 min 2 min 116 W/m 29,3 km/h (5 Bft) 95,74 %
04.01.2017 11:36 4,8 C 5,6 C 2,8 C 95 % 3 lf 1013,9 hPa 0,0 l/m 0 min 2 min 103 W/m 37,7 km/h (5 Bft) 97,87 %
04.01.2017 11:38 4,8 C 5,6 C 2,8 C 94 % 1 lf 1013,9 hPa 0,0 l/m 0 min 0 min 92 W/m 35,6 km/h (5 Bft) 95,12 %
04.01.2017 11:40 4,8 C 5,6 C 2,8 C 94 % 0 lf 1013,9 hPa 0,0 l/m 0 min 0 min 84 W/m 35,6 km/h (5 Bft) 97,87 %
04.01.2017 11:42 4,8 C 5,0 C 2,8 C 94 % 0 lf 1013,9 hPa 0,0 l/m 0 min 2 min 82 W/m 43,9 km/h (6 Bft) 95,92 %
04.01.2017 11:44 4,8 C 5,6 C 2,8 C 93 % 0 lf 1013,9 hPa 0,0 l/m 0 min 2 min 85 W/m 20,9 km/h (4 Bft) 95,74 %
04.01.2017 11:46 4,8 C 5,6 C 2,8 C 93 % 0 lf 1013,9 hPa 0,0 l/m 0 min 0 min 88 W/m 33,5 km/h (5 Bft) 95,74 %
04.01.2017 11:48 4,8 C 5,6 C 2,8 C 93 % 0 lf 1013,9 hPa 0,0 l/m 0 min 2 min 88 W/m 37,7 km/h (5 Bft) 95,74 %
04.01.2017 11:50 4,8 C 5,6 C 2,8 C 93 % 0 lf 1013,9 hPa 0,0 l/m 0 min 0 min 101 W/m 25,1 km/h (4 Bft) 97,96 %
04.01.2017 11:52 4,8 C 5,6 C 2,8 C 92 % 0 lf 1013,9 hPa 0,0 l/m 0 min 2 min 94 W/m 23,0 km/h (4 Bft) 100,00 %
04.01.2017 11:54 4,8 C 5,6 C 2,8 C 92 % 0 lf 1013,9 hPa 0,0 l/m 0 min 0 min 99 W/m 18,8 km/h (3 Bft) 94,83 %
04.01.2017 11:56 4,8 C 6,1 C 2,8 C 92 % 0 lf 1013,9 hPa 0,0 l/m 0 min 0 min 108 W/m 16,7 km/h (3 Bft) 97,56 %
04.01.2017 11:58 4,8 C 6,7 C 3,3 C 92 % 0 lf 1013,9 hPa 0,0 l/m 0 min 0 min 132 W/m 25,1 km/h (4 Bft) 95,74 %
04.01.2017 12:00 4,8 C 6,7 C 3,3 C 91 % 0 lf 1013,9 hPa 0,0 l/m 2 min 0 min 152 W/m 31,4 km/h (5 Bft) 97,87 %
04.01.2017 12:02 4,9 C 6,7 C 3,3 C 91 % 0 lf 1013,9 hPa 0,0 l/m 0 min 0 min 90 W/m 16,7 km/h (3 Bft) 96,00 %
04.01.2017 12:04 4,9 C 6,7 C 3,3 C 91 % 0 lf 1013,9 hPa 0,0 l/m 0 min 0 min 84 W/m 25,1 km/h (4 Bft) 95,92 %
04.01.2017 12:06 4,9 C 6,7 C 3,3 C 91 % 0 lf 1013,8 hPa 0,0 l/m 0 min 0 min 90 W/m 18,8 km/h (3 Bft) 95,74 %
04.01.2017 12:08 4,9 C 6,7 C 3,9 C 91 % 0 lf 1013,9 hPa 0,0 l/m 0 min 0 min 115 W/m 31,4 km/h (5 Bft) 100,00 %
04.01.2017 12:10 5,0 C 6,7 C 3,9 C 91 % 0 lf 1013,9 hPa 0,0 l/m 0 min 0 min 79 W/m 23,0 km/h (4 Bft) 98,00 %
04.01.2017 12:12 5,0 C 6,7 C 3,9 C 91 % 0 lf 1013,9 hPa 0,0 l/m 0 min 0 min 79 W/m 25,1 km/h (4 Bft) 100,00 %
04.01.2017 12:14 5,1 C 6,1 C 3,9 C 90 % 0 lf 1013,8 hPa 0,0 l/m 0 min 0 min 86 W/m 35,6 km/h (5 Bft) 95,83 %
04.01.2017 12:16 5,1 C 6,7 C 3,9 C 90 % 0 lf 1013,8 hPa 0,0 l/m 0 min 0 min 123 W/m 29,3 km/h (5 Bft) 91,49 %
04.01.2017 12:18 5,1 C 6,7 C 3,9 C 89 % 0 lf 1013,9 hPa 0,0 l/m 0 min 0 min 89 W/m 29,3 km/h (5 Bft) 95,24 %
04.01.2017 12:20 5,1 C 6,7 C 3,9 C 89 % 0 lf 1013,7 hPa 0,0 l/m 0 min 0 min 74 W/m 25,1 km/h (4 Bft) 97,87 %
04.01.2017 12:22 5,2 C 6,7 C 3,9 C 89 % 0 lf 1013,8 hPa 0,0 l/m 0 min 0 min 98 W/m 27,2 km/h (4 Bft) 100,00 %
04.01.2017 12:24 5,2 C 6,7 C 3,9 C 88 % 0 lf 1013,9 hPa 0,0 l/m 0 min 0 min 72 W/m 25,1 km/h (4 Bft) 94,00 %
04.01.2017 12:26 5,2 C 6,1 C 3,9 C 88 % 0 lf 1013,8 hPa 0,0 l/m 0 min 0 min 73 W/m 27,2 km/h (4 Bft) 93,75 %
04.01.2017 12:28 5,2 C 6,7 C 3,9 C 88 % 0 lf 1013,7 hPa 0,0 l/m 0 min 0 min 85 W/m 18,8 km/h (3 Bft) 95,74 %
04.01.2017 12:30 5,2 C 6,7 C 4,4 C 87 % 0 lf 1013,8 hPa 0,0 l/m 0 min 0 min 105 W/m 25,1 km/h (4 Bft) 93,62 %
04.01.2017 12:32 5,3 C 7,2 C 4,4 C 87 % 0 lf 1013,9 hPa 0,0 l/m 2 min 0 min 157 W/m 31,4 km/h (5 Bft) 92,86 %
04.01.2017 12:34 5,3 C 7,2 C 4,4 C 87 % 1 lf 1013,9 hPa 0,0 l/m 0 min 0 min 136 W/m 27,2 km/h (4 Bft) 96,00 %
04.01.2017 12:36 5,3 C 7,2 C 4,4 C 87 % 0 lf 1013,9 hPa 0,0 l/m 0 min 0 min 120 W/m 25,1 km/h (4 Bft) 95,92 %
04.01.2017 12:38 5,4 C 7,2 C 4,4 C 87 % 0 lf 1013,9 hPa 0,0 l/m 2 min 0 min 159 W/m 27,2 km/h (4 Bft) 93,48 %
04.01.2017 12:40 5,4 C 7,2 C 4,4 C 87 % 0 lf 1013,9 hPa 0,0 l/m 2 min 0 min 141 W/m 35,6 km/h (5 Bft) 89,36 %
04.01.2017 12:42 5,4 C 6,7 C 4,4 C 87 % 0 lf 1013,9 hPa 0,0 l/m 0 min 0 min 93 W/m 29,3 km/h (5 Bft) 95,74 %
04.01.2017 12:44 5,4 C 6,7 C 4,4 C 86 % 0 lf 1013,9 hPa 0,0 l/m 0 min 0 min 91 W/m 37,7 km/h (5 Bft) 93,62 %
04.01.2017 12:46 5,4 C 6,7 C 4,4 C 86 % 0 lf 1013,9 hPa 0,0 l/m 0 min 0 min 89 W/m 27,2 km/h (4 Bft) 92,86 %
04.01.2017 12:48 5,4 C 6,7 C 3,9 C 86 % 0 lf 1013,9 hPa 0,0 l/m 0 min 0 min 77 W/m 29,3 km/h (5 Bft) 96,00 %
04.01.2017 12:50 5,4 C 6,7 C 3,9 C 86 % 0 lf 1013,9 hPa 0,0 l/m 0 min 0 min 78 W/m 31,4 km/h (5 Bft) 95,83 %
04.01.2017 12:52 5,4 C 6,1 C 3,9 C 86 % 0 lf 1013,9 hPa 0,0 l/m 0 min 0 min 68 W/m 29,3 km/h (5 Bft) 95,74 %
04.01.2017 12:54 5,4 C 6,7 C 3,9 C 86 % 0 lf 1013,9 hPa 0,0 l/m 0 min 0 min 94 W/m 27,2 km/h (4 Bft) 93,62 %
04.01.2017 12:56 5,4 C 6,7 C 3,9 C 86 % 0 lf 1013,9 hPa 0,0 l/m 0 min 0 min 108 W/m 29,3 km/h (5 Bft) 91,49 %
04.01.2017 12:58 5,4 C 7,2 C 3,9 C 86 % 0 lf 1013,9 hPa 0,0 l/m 2 min 0 min 150 W/m 20,9 km/h (4 Bft) 90,48 %
04.01.2017 13:00 5,4 C 7,2 C 3,9 C 86 % 0 lf 1013,9 hPa 0,0 l/m 0 min 0 min 129 W/m 20,9 km/h (4 Bft) 96,00 %
04.01.2017 13:02 5,4 C 7,2 C 4,4 C 86 % 0 lf 1014,0 hPa 0,0 l/m 2 min 0 min 160 W/m 33,5 km/h (5 Bft) 93,48 %
04.01.2017 13:04 5,4 C 7,2 C 4,4 C 86 % 1 lf 1014,0 hPa 0,0 l/m 2 min 0 min 182 W/m 31,4 km/h (5 Bft) 93,88 %
04.01.2017 13:06 5,4 C 7,2 C 4,4 C 86 % 3 lf 1013,9 hPa 0,0 l/m 0 min 0 min 124 W/m 27,2 km/h (4 Bft) 95,74 %
04.01.2017 13:08 5,4 C 6,7 C 4,4 C 86 % 15 lf 1014,0 hPa 0,0 l/m 0 min 2 min 74 W/m 29,3 km/h (5 Bft) 92,86 %
04.01.2017 13:10 5,4 C 6,1 C 3,9 C 86 % 15 lf 1013,9 hPa 0,0 l/m 0 min 2 min 50 W/m 29,3 km/h (5 Bft) 94,00 %
04.01.2017 13:12 5,4 C 6,1 C 3,9 C 86 % 15 lf 1014,0 hPa 0,0 l/m 0 min 2 min 42 W/m 23,0 km/h (4 Bft) 95,83 %
04.01.2017 13:14 5,4 C 5,6 C 3,3 C 86 % 15 lf 1014,0 hPa 0,0 l/m 0 min 2 min 56 W/m 41,8 km/h (6 Bft) 95,74 %
04.01.2017 13:16 5,4 C 5,0 C 3,3 C 86 % 15 lf 1014,0 hPa 0,0 l/m 0 min 2 min 75 W/m 37,7 km/h (5 Bft) 95,74 %
04.01.2017 13:18 5,3 C 5,0 C 2,8 C 86 % 15 lf 1014,3 hPa 0,2 l/m 0 min 2 min 50 W/m 41,8 km/h (6 Bft) 93,62 %
04.01.2017 13:20 5,2 C 3,9 C 2,2 C 86 % 15 lf 1014,5 hPa 0,2 l/m 0 min 2 min 25 W/m 46,0 km/h (6 Bft) 95,74 %
04.01.2017 13:22 4,9 C 3,3 C 1,7 C 86 % 15 lf 1014,5 hPa 0,0 l/m 0 min 2 min 19 W/m 64,9 km/h (8 Bft) 97,87 %
04.01.2017 13:24 4,7 C 3,3 C 1,7 C 86 % 15 lf 1014,7 hPa 0,0 l/m 0 min 2 min 14 W/m 58,6 km/h (7 Bft) 97,83 %
04.01.2017 13:26 4,3 C 2,8 C 0,0 C 86 % 15 lf 1014,6 hPa 0,0 l/m 0 min 2 min 10 W/m 66,9 km/h (8 Bft) 95,74 %
04.01.2017 13:28 3,9 C 2,2 C 0,0 C 86 % 15 lf 1014,3 hPa 0,2 l/m 0 min 2 min 11 W/m 48,1 km/h (6 Bft) 95,74 %
04.01.2017 13:30 3,7 C 2,2 C 0,0 C 87 % 15 lf 1014,3 hPa 0,2 l/m 0 min 2 min 14 W/m 35,6 km/h (5 Bft) 97,62 %
04.01.2017 13:32 3,4 C 2,2 C 0,6 C 87 % 15 lf 1014,2 hPa 0,0 l/m 0 min 2 min 24 W/m 25,1 km/h (4 Bft) 98,00 %
04.01.2017 13:34 3,3 C 2,2 C 0,6 C 88 % 15 lf 1014,1 hPa 0,0 l/m 0 min 2 min 31 W/m 27,2 km/h (4 Bft) 97,87 %
04.01.2017 13:36 3,2 C 2,2 C 0,6 C 88 % 15 lf 1014,1 hPa 0,2 l/m 0 min 0 min 33 W/m 29,3 km/h (5 Bft) 95,74 %
04.01.2017 13:38 3,0 C 2,2 C 0,6 C 89 % 15 lf 1014,1 hPa 0,0 l/m 0 min 0 min 36 W/m 31,4 km/h (5 Bft) 93,75 %
04.01.2017 13:40 2,9 C 2,2 C 0,6 C 89 % 15 lf 1014,0 hPa 0,0 l/m 0 min 0 min 36 W/m 27,2 km/h (4 Bft) 97,87 %
04.01.2017 13:42 2,8 C 2,2 C 0,0 C 90 % 15 lf 1014,0 hPa 0,0 l/m 0 min 0 min 33 W/m 29,3 km/h (5 Bft) 95,74 %
04.01.2017 13:44 2,7 C 2,2 C 0,0 C 90 % 15 lf 1014,0 hPa 0,0 l/m 0 min 0 min 33 W/m 29,3 km/h (5 Bft) 93,62 %
04.01.2017 13:46 2,6 C 2,2 C 0,0 C 90 % 15 lf 1014,0 hPa 0,0 l/m 0 min 0 min 48 W/m 14,6 km/h (3 Bft) 95,65 %
04.01.2017 13:48 2,6 C 3,9 C 0,6 C 91 % 15 lf 1014,0 hPa 0,0 l/m 2 min 0 min 133 W/m 20,9 km/h (4 Bft) 90,70 %
04.01.2017 13:50 2,5 C 6,1 C 0,6 C 91 % 15 lf 1014,0 hPa 0,0 l/m 2 min 0 min 195 W/m 18,8 km/h (3 Bft) 93,88 %
04.01.2017 13:52 2,5 C 6,7 C 0,6 C 91 % 15 lf 1014,0 hPa 0,2 l/m 2 min 0 min 188 W/m 18,8 km/h (3 Bft) 95,74 %
04.01.2017 13:54 2,6 C 7,8 C 1,1 C 91 % 15 lf 1013,9 hPa 0,0 l/m 2 min 0 min 182 W/m 20,9 km/h (4 Bft) 97,96 %
04.01.2017 13:56 2,6 C 8,9 C 1,1 C 92 % 15 lf 1014,1 hPa 0,0 l/m 2 min 0 min 180 W/m 16,7 km/h (3 Bft) 95,74 %
04.01.2017 13:58 2,6 C 10,0 C 1,1 C 92 % 15 lf 1014,1 hPa 0,0 l/m 2 min 0 min 179 W/m 20,9 km/h (4 Bft) 95,74 %
04.01.2017 14:00 2,7 C 10,0 C 1,7 C 92 % 15 lf 1014,1 hPa 0,0 l/m 2 min 0 min 179 W/m 23,0 km/h (4 Bft) 94,74 %
04.01.2017 14:02 2,8 C 10,0 C 1,7 C 93 % 15 lf 1014,1 hPa 0,0 l/m 2 min 0 min 176 W/m 23,0 km/h (4 Bft) 93,88 %
04.01.2017 14:04 2,8 C 10,6 C 1,7 C 93 % 15 lf 1014,1 hPa 0,0 l/m 2 min 0 min 174 W/m 25,1 km/h (4 Bft) 90,00 %
04.01.2017 14:06 2,9 C 10,0 C 1,7 C 93 % 15 lf 1014,1 hPa 0,0 l/m 2 min 0 min 172 W/m 23,0 km/h (4 Bft) 98,15 %
04.01.2017 14:08 3,0 C 10,6 C 1,7 C 93 % 15 lf 1014,1 hPa 0,0 l/m 2 min 0 min 171 W/m 29,3 km/h (5 Bft) 97,37 %
04.01.2017 14:10 3,1 C 10,6 C 2,2 C 93 % 15 lf 1014,0 hPa 0,0 l/m 2 min 0 min 173 W/m 29,3 km/h (5 Bft) 95,92 %
04.01.2017 14:12 3,2 C 11,1 C 2,2 C 93 % 15 lf 1014,1 hPa 0,0 l/m 2 min 0 min 174 W/m 18,8 km/h (3 Bft) 97,83 %
04.01.2017 14:14 3,3 C 9,4 C 2,2 C 94 % 15 lf 1014,0 hPa 0,0 l/m 2 min 0 min 119 W/m 20,9 km/h (4 Bft) 98,15 %
04.01.2017 14:16 3,4 C 8,3 C 1,7 C 94 % 15 lf 1014,1 hPa 0,0 l/m 0 min 0 min 72 W/m 20,9 km/h (4 Bft) 94,74 %
04.01.2017 14:18 3,4 C 8,3 C 1,7 C 94 % 15 lf 1014,0 hPa 0,0 l/m 2 min 0 min 118 W/m 18,8 km/h (3 Bft) 97,96 %
04.01.2017 14:20 3,5 C 7,8 C 1,7 C 94 % 15 lf 1014,0 hPa 0,0 l/m 2 min 0 min 123 W/m 16,7 km/h (3 Bft) 95,74 %
04.01.2017 14:22 3,5 C 8,3 C 1,7 C 94 % 15 lf 1013,9 hPa 0,0 l/m 2 min 0 min 125 W/m 18,8 km/h (3 Bft) 100,00 %
04.01.2017 14:24 3,6 C 8,9 C 2,2 C 94 % 15 lf 1013,9 hPa 0,0 l/m 2 min 0 min 137 W/m 18,8 km/h (3 Bft) 97,87 %
04.01.2017 14:26 3,6 C 8,9 C 2,2 C 94 % 15 lf 1013,9 hPa 0,0 l/m 2 min 0 min 137 W/m 16,7 km/h (3 Bft) 98,15 %
04.01.2017 14:28 3,7 C 9,4 C 2,2 C 94 % 15 lf 1013,9 hPa 0,0 l/m 2 min 0 min 149 W/m 25,1 km/h (4 Bft) 100,00 %
04.01.2017 14:30 3,8 C 8,9 C 2,2 C 94 % 15 lf 1013,8 hPa 0,0 l/m 2 min 0 min 143 W/m 33,5 km/h (5 Bft) 100,00 %
04.01.2017 14:32 3,8 C 8,9 C 2,2 C 94 % 15 lf 1013,8 hPa 0,0 l/m 2 min 0 min 143 W/m 20,9 km/h (4 Bft) 95,74 %
04.01.2017 14:34 3,9 C 8,3 C 2,2 C 93 % 15 lf 1013,9 hPa 0,0 l/m 2 min 0 min 134 W/m 16,7 km/h (3 Bft) 97,83 %
04.01.2017 14:36 3,9 C 7,2 C 2,2 C 94 % 15 lf 1013,9 hPa 0,0 l/m 2 min 0 min 133 W/m 25,1 km/h (4 Bft) 98,15 %
04.01.2017 14:38 4,0 C 6,7 C 2,2 C 93 % 15 lf 1013,8 hPa 0,0 l/m 2 min 0 min 130 W/m 18,8 km/h (3 Bft) 100,00 %
04.01.2017 14:40 4,1 C 6,1 C 2,2 C 93 % 15 lf 1013,9 hPa 0,0 l/m 2 min 0 min 128 W/m 20,9 km/h (4 Bft) 91,49 %
04.01.2017 14:42 4,1 C 6,1 C 2,2 C 93 % 15 lf 1014,0 hPa 0,0 l/m 2 min 0 min 126 W/m 20,9 km/h (4 Bft) 100,00 %
04.01.2017 14:44 4,2 C 6,1 C 2,2 C 93 % 15 lf 1013,8 hPa 0,0 l/m 2 min 0 min 123 W/m 27,2 km/h (4 Bft) 97,87 %
04.01.2017 14:46 4,2 C 6,1 C 2,2 C 93 % 15 lf 1013,9 hPa 0,0 l/m 2 min 0 min 123 W/m 23,0 km/h (4 Bft) 97,83 %
04.01.2017 14:48 4,3 C 6,1 C 2,2 C 92 % 15 lf 1013,9 hPa 0,0 l/m 2 min 0 min 118 W/m 50,2 km/h (7 Bft) 98,15 %
04.01.2017 14:50 4,4 C 6,1 C 2,2 C 92 % 15 lf 1013,7 hPa 0,0 l/m 2 min 0 min 108 W/m 29,3 km/h (5 Bft) 100,00 %
04.01.2017 14:52 4,4 C 6,1 C 2,2 C 92 % 15 lf 1013,8 hPa 0,0 l/m 2 min 0 min 95 W/m 43,9 km/h (6 Bft) 100,00 %
04.01.2017 14:54 4,4 C 5,6 C 2,2 C 92 % 15 lf 1013,8 hPa 0,0 l/m 0 min 0 min 74 W/m 31,4 km/h (5 Bft) 100,00 %
04.01.2017 14:56 4,5 C 5,6 C 2,2 C 91 % 15 lf 1013,8 hPa 0,0 l/m 0 min 0 min 86 W/m 33,5 km/h (5 Bft) 93,62 %
04.01.2017 14:58 4,5 C 5,6 C 2,2 C 91 % 15 lf 1013,8 hPa 0,0 l/m 0 min 0 min 88 W/m 29,3 km/h (5 Bft) 100,00 %
04.01.2017 15:00 4,6 C 5,6 C 2,2 C 91 % 15 lf 1013,8 hPa 0,0 l/m 0 min 0 min 86 W/m 29,3 km/h (5 Bft) 97,87 %
04.01.2017 15:02 4,6 C 5,6 C 2,2 C 90 % 15 lf 1013,8 hPa 0,0 l/m 2 min 0 min 89 W/m 48,1 km/h (6 Bft) 94,44 %
04.01.2017 15:04 4,6 C 6,1 C 2,2 C 90 % 15 lf 1013,7 hPa 0,0 l/m 2 min 0 min 103 W/m 35,6 km/h (5 Bft) 100,00 %
04.01.2017 15:06 4,7 C 6,1 C 2,8 C 89 % 15 lf 1013,7 hPa 0,0 l/m 2 min 0 min 86 W/m 29,3 km/h (5 Bft) 100,00 %
04.01.2017 15:08 4,7 C 6,1 C 2,2 C 89 % 15 lf 1013,7 hPa 0,0 l/m 0 min 0 min 76 W/m 37,7 km/h (5 Bft) 100,00 %
04.01.2017 15:10 4,7 C 5,6 C 2,2 C 88 % 15 lf 1013,7 hPa 0,0 l/m 0 min 0 min 59 W/m 31,4 km/h (5 Bft) 100,00 %
04.01.2017 15:12 4,7 C 5,6 C 2,2 C 88 % 15 lf 1013,7 hPa 0,0 l/m 0 min 0 min 47 W/m 33,5 km/h (5 Bft) 100,00 %
04.01.2017 15:14 4,8 C 5,6 C 2,2 C 87 % 15 lf 1013,8 hPa 0,0 l/m 0 min 0 min 48 W/m 20,9 km/h (4 Bft) 96,30 %
04.01.2017 15:16 4,8 C 5,6 C 2,2 C 87 % 15 lf 1013,8 hPa 0,0 l/m 0 min 0 min 45 W/m 31,4 km/h (5 Bft) 100,00 %
04.01.2017 15:18 4,8 C 5,6 C 2,2 C 87 % 15 lf 1014,0 hPa 0,0 l/m 0 min 0 min 42 W/m 58,6 km/h (7 Bft) 97,96 %
04.01.2017 15:20 4,8 C 5,6 C 2,2 C 86 % 13 lf 1014,0 hPa 0,0 l/m 0 min 0 min 43 W/m 29,3 km/h (5 Bft) 95,74 %
04.01.2017 15:22 4,8 C 5,6 C 2,2 C 86 % 11 lf 1014,1 hPa 0,0 l/m 0 min 0 min 41 W/m 35,6 km/h (5 Bft) 97,83 %
04.01.2017 15:24 4,8 C 5,6 C 2,2 C 86 % 5 lf 1014,0 hPa 0,0 l/m 0 min 0 min 35 W/m 29,3 km/h (5 Bft) 98,15 %
04.01.2017 15:26 4,8 C 5,6 C 2,2 C 85 % 3 lf 1014,1 hPa 0,0 l/m 0 min 0 min 36 W/m 25,1 km/h (4 Bft) 95,74 %
04.01.2017 15:28 4,9 C 5,6 C 2,2 C 85 % 1 lf 1014,1 hPa 0,0 l/m 0 min 0 min 32 W/m 35,6 km/h (5 Bft) 95,74 %
04.01.2017 15:30 4,9 C 5,0 C 2,2 C 85 % 0 lf 1014,0 hPa 0,0 l/m 0 min 0 min 26 W/m 37,7 km/h (5 Bft) 100,00 %
04.01.2017 15:32 4,9 C 5,0 C 2,2 C 84 % 0 lf 1014,1 hPa 0,0 l/m 0 min 0 min 31 W/m 35,6 km/h (5 Bft) 97,87 %
04.01.2017 15:34 4,9 C 5,0 C 2,2 C 84 % 0 lf 1014,2 hPa 0,0 l/m 0 min 0 min 42 W/m 31,4 km/h (5 Bft) 95,83 %
04.01.2017 15:36 4,9 C 5,0 C 2,2 C 84 % 0 lf 1014,2 hPa 0,0 l/m 0 min 0 min 34 W/m 31,4 km/h (5 Bft) 95,74 %
04.01.2017 15:38 4,9 C 5,0 C 2,2 C 84 % 0 lf 1014,2 hPa 0,0 l/m 0 min 0 min 35 W/m 27,2 km/h (4 Bft) 97,87 %
04.01.2017 15:40 4,9 C 5,0 C 2,2 C 84 % 0 lf 1014,3 hPa 0,0 l/m 0 min 0 min 32 W/m 16,7 km/h (3 Bft) 95,74 %
04.01.2017 15:42 4,9 C 5,0 C 2,2 C 84 % 0 lf 1014,2 hPa 0,0 l/m 0 min 0 min 21 W/m 27,2 km/h (4 Bft) 95,74 %
04.01.2017 15:44 4,9 C 5,0 C 2,2 C 84 % 0 lf 1014,3 hPa 0,0 l/m 0 min 0 min 25 W/m 23,0 km/h (4 Bft) 93,48 %
04.01.2017 15:46 4,9 C 5,0 C 2,2 C 84 % 0 lf 1014,3 hPa 0,0 l/m 0 min 0 min 24 W/m 31,4 km/h (5 Bft) 91,49 %
04.01.2017 15:48 4,9 C 5,6 C 2,8 C 84 % 0 lf 1014,3 hPa 0,0 l/m 0 min 0 min 19 W/m 20,9 km/h (4 Bft) 93,62 %
04.01.2017 15:50 4,9 C 5,6 C 2,8 C 84 % 0 lf 1014,4 hPa 0,0 l/m 0 min 0 min 17 W/m 29,3 km/h (5 Bft) 89,36 %
04.01.2017 15:52 4,9 C 5,6 C 2,8 C 84 % 0 lf 1014,4 hPa 0,0 l/m 0 min 0 min 17 W/m 16,7 km/h (3 Bft) 93,62 %
04.01.2017 15:54 4,9 C 5,6 C 2,8 C 84 % 0 lf 1014,4 hPa 0,0 l/m 0 min 0 min 20 W/m 14,6 km/h (3 Bft) 93,62 %
04.01.2017 15:56 4,9 C 5,0 C 2,8 C 84 % 0 lf 1014,3 hPa 0,0 l/m 0 min 0 min 13 W/m 18,8 km/h (3 Bft) 92,45 %
04.01.2017 15:58 4,9 C 5,0 C 2,8 C 84 % 15 lf 1014,4 hPa 0,0 l/m 0 min 2 min 12 W/m 35,6 km/h (5 Bft) 91,49 %
04.01.2017 16:00 4,9 C 5,6 C 2,8 C 84 % 14 lf 1014,4 hPa 0,0 l/m 0 min 2 min 12 W/m 31,4 km/h (5 Bft) 95,74 %
04.01.2017 16:02 5,0 C 5,0 C 2,2 C 84 % 12 lf 1014,4 hPa 0,0 l/m 0 min 0 min 13 W/m 25,1 km/h (4 Bft) 91,49 %
04.01.2017 16:04 5,0 C 5,0 C 2,2 C 84 % 7 lf 1014,4 hPa 0,0 l/m 0 min 0 min 14 W/m 37,7 km/h (5 Bft) 89,36 %
04.01.2017 16:06 5,0 C 5,0 C 2,2 C 84 % 4 lf 1014,5 hPa 0,0 l/m 0 min 0 min 14 W/m 39,7 km/h (6 Bft) 89,47 %
04.01.2017 16:08 5,0 C 5,0 C 2,2 C 84 % 2 lf 1014,4 hPa 0,0 l/m 0 min 0 min 14 W/m 46,0 km/h (6 Bft) 91,67 %
04.01.2017 16:10 4,9 C 5,0 C 2,2 C 84 % 0 lf 1014,4 hPa 0,0 l/m 0 min 0 min 14 W/m 37,7 km/h (5 Bft) 89,36 %
04.01.2017 16:12 4,9 C 5,0 C 2,2 C 84 % 0 lf 1014,5 hPa 0,0 l/m 0 min 0 min 13 W/m 23,0 km/h (4 Bft) 91,49 %
04.01.2017 16:14 4,9 C 5,0 C 2,2 C 83 % 0 lf 1014,5 hPa 0,0 l/m 0 min 0 min 12 W/m 39,7 km/h (6 Bft) 93,62 %
04.01.2017 16:16 4,9 C 5,0 C 2,2 C 83 % 0 lf 1014,6 hPa 0,0 l/m 0 min 0 min 12 W/m 31,4 km/h (5 Bft) 92,59 %
04.01.2017 16:18 4,8 C 5,0 C 2,2 C 83 % 0 lf 1014,6 hPa 0,0 l/m 0 min 0 min 12 W/m 29,3 km/h (5 Bft) 93,48 %
04.01.2017 16:20 4,8 C 5,0 C 2,2 C 83 % 0 lf 1014,6 hPa 0,0 l/m 0 min 0 min 12 W/m 29,3 km/h (5 Bft) 94,87 %
04.01.2017 16:22 4,8 C 5,0 C 2,2 C 83 % 0 lf 1014,6 hPa 0,0 l/m 0 min 0 min 12 W/m 41,8 km/h (6 Bft) 89,58 %
04.01.2017 16:24 4,8 C 5,0 C 2,2 C 83 % 0 lf 1014,6 hPa 0,0 l/m 0 min 0 min 12 W/m 20,9 km/h (4 Bft) 95,74 %
04.01.2017 16:26 4,7 C 4,4 C 2,2 C 83 % 0 lf 1014,5 hPa 0,0 l/m 0 min 0 min 13 W/m 29,3 km/h (5 Bft) 93,62 %
04.01.2017 16:28 4,7 C 4,4 C 1,7 C 83 % 0 lf 1014,6 hPa 0,0 l/m 0 min 0 min 16 W/m 23,0 km/h (4 Bft) 95,74 %
04.01.2017 16:30 4,7 C 4,4 C 1,7 C 83 % 0 lf 1014,6 hPa 0,0 l/m 0 min 0 min 12 W/m 33,5 km/h (5 Bft) 95,74 %
04.01.2017 16:32 4,6 C 4,4 C 1,7 C 83 % 0 lf 1014,6 hPa 0,0 l/m 0 min 0 min 11 W/m 29,3 km/h (5 Bft) 89,13 %
04.01.2017 16:34 4,6 C 4,4 C 1,7 C 83 % 0 lf 1014,6 hPa 0,0 l/m 0 min 0 min 11 W/m 23,0 km/h (4 Bft) 95,74 %
04.01.2017 16:36 4,5 C 3,9 C 1,7 C 83 % 0 lf 1014,6 hPa 0,0 l/m 0 min 0 min 11 W/m 20,9 km/h (4 Bft) 93,62 %
04.01.2017 16:38 4,4 C 3,9 C 1,7 C 84 % 0 lf 1014,7 hPa 0,0 l/m 0 min 0 min 10 W/m 20,9 km/h (4 Bft) 91,49 %
04.01.2017 16:40 4,4 C 3,9 C 1,7 C 84 % 0 lf 1014,6 hPa 0,0 l/m 0 min 0 min 9 W/m 27,2 km/h (4 Bft) 91,49 %
04.01.2017 16:42 4,3 C 3,9 C 1,7 C 84 % 0 lf 1014,6 hPa 0,0 l/m 0 min 0 min 7 W/m 23,0 km/h (4 Bft) 94,34 %
04.01.2017 16:44 4,3 C 3,9 C 1,7 C 84 % 0 lf 1014,6 hPa 0,0 l/m 0 min 0 min 7 W/m 20,9 km/h (4 Bft) 94,87 %
04.01.2017 16:46 4,2 C 3,9 C 1,7 C 84 % 0 lf 1014,7 hPa 0,0 l/m 0 min 0 min 7 W/m 23,0 km/h (4 Bft) 97,83 %
04.01.2017 16:48 4,2 C 3,9 C 1,7 C 85 % 0 lf 1014,7 hPa 0,0 l/m 0 min 0 min 5 W/m 25,1 km/h (4 Bft) 97,87 %
04.01.2017 16:50 4,2 C 3,9 C 1,7 C 85 % 0 lf 1014,7 hPa 0,0 l/m 0 min 0 min 5 W/m 27,2 km/h (4 Bft) 95,74 %
04.01.2017 16:52 4,1 C 3,9 C 1,7 C 85 % 0 lf 1014,7 hPa 0,0 l/m 0 min 0 min 5 W/m 27,2 km/h (4 Bft) 95,74 %
04.01.2017 16:54 4,1 C 3,9 C 1,7 C 85 % 0 lf 1014,7 hPa 0,0 l/m 0 min 0 min 5 W/m 20,9 km/h (4 Bft) 93,75 %
04.01.2017 16:56 4,1 C 3,9 C 1,7 C 86 % 0 lf 1014,7 hPa 0,0 l/m 0 min 0 min 5 W/m 18,8 km/h (3 Bft) 91,49 %
04.01.2017 16:58 4,1 C 3,9 C 1,7 C 86 % 0 lf 1014,7 hPa 0,0 l/m 0 min 0 min 0 W/m 23,0 km/h (4 Bft) 97,87 %
04.01.2017 17:00 4,1 C 3,9 C 1,7 C 86 % 2 lf 1014,7 hPa 0,0 l/m 0 min 0 min 0 W/m 27,2 km/h (4 Bft) 90,74 %
04.01.2017 17:02 4,1 C 3,9 C 1,7 C 86 % 1 lf 1014,8 hPa 0,0 l/m 0 min 2 min 0 W/m 31,4 km/h (5 Bft) 97,37 %
04.01.2017 17:04 4,1 C 4,4 C 2,2 C 86 % 0 lf 1014,8 hPa 0,0 l/m 0 min 0 min 0 W/m 31,4 km/h (5 Bft) 100,00 %
04.01.2017 17:06 4,1 C 4,4 C 1,7 C 86 % 0 lf 1014,8 hPa 0,0 l/m 0 min 0 min 0 W/m 25,1 km/h (4 Bft) 95,65 %
04.01.2017 17:08 4,1 C 3,9 C 1,7 C 87 % 0 lf 1014,8 hPa 0,0 l/m 0 min 0 min 0 W/m 18,8 km/h (3 Bft) 100,00 %
04.01.2017 17:10 4,1 C 3,9 C 1,7 C 87 % 0 lf 1014,8 hPa 0,0 l/m 0 min 0 min 0 W/m 25,1 km/h (4 Bft) 97,87 %
04.01.2017 17:12 4,1 C 3,9 C 1,7 C 87 % 0 lf 1014,9 hPa 0,0 l/m 0 min 0 min 0 W/m 31,4 km/h (5 Bft) 94,44 %
04.01.2017 17:14 4,0 C 3,9 C 1,7 C 87 % 0 lf 1014,9 hPa 0,0 l/m 0 min 0 min 0 W/m 27,2 km/h (4 Bft) 97,87 %
04.01.2017 17:16 4,0 C 3,9 C 1,7 C 87 % 0 lf 1014,9 hPa 0,0 l/m 0 min 0 min 0 W/m 25,1 km/h (4 Bft) 100,00 %
04.01.2017 17:18 4,0 C 4,4 C 1,7 C 87 % 0 lf 1015,0 hPa 0,0 l/m 0 min 0 min 0 W/m 20,9 km/h (4 Bft) 100,00 %
04.01.2017 17:20 4,0 C 4,4 C 1,7 C 87 % 0 lf 1015,0 hPa 0,0 l/m 0 min 0 min 0 W/m 20,9 km/h (4 Bft) 97,87 %
04.01.2017 17:22 4,0 C 4,4 C 1,7 C 87 % 0 lf 1015,0 hPa 0,0 l/m 0 min 0 min 0 W/m 20,9 km/h (4 Bft) 97,87 %
04.01.2017 17:24 4,0 C 4,4 C 2,2 C 87 % 0 lf 1015,1 hPa 0,0 l/m 0 min 0 min 0 W/m 33,5 km/h (5 Bft) 100,00 %
04.01.2017 17:26 4,0 C 4,4 C 1,7 C 87 % 0 lf 1015,0 hPa 0,0 l/m 0 min 0 min 0 W/m 29,3 km/h (5 Bft) 100,00 %
04.01.2017 17:28 4,1 C 4,4 C 1,7 C 87 % 0 lf 1015,0 hPa 0,0 l/m 0 min 0 min 0 W/m 35,6 km/h (5 Bft) 97,87 %
04.01.2017 17:30 4,1 C 4,4 C 1,7 C 87 % 0 lf 1015,0 hPa 0,0 l/m 0 min 0 min 0 W/m 41,8 km/h (6 Bft) 98,11 %
04.01.2017 17:32 4,1 C 4,4 C 1,7 C 87 % 0 lf 1015,1 hPa 0,0 l/m 0 min 0 min 0 W/m 41,8 km/h (6 Bft) 97,37 %
04.01.2017 17:34 4,1 C 4,4 C 1,7 C 86 % 0 lf 1015,1 hPa 0,0 l/m 0 min 0 min 0 W/m 35,6 km/h (5 Bft) 95,92 %
04.01.2017 17:36 4,1 C 3,9 C 1,7 C 86 % 0 lf 1015,1 hPa 0,0 l/m 0 min 0 min 0 W/m 35,6 km/h (5 Bft) 97,87 %
04.01.2017 17:38 4,1 C 4,4 C 1,7 C 86 % 1 lf 1015,1 hPa 0,0 l/m 0 min 0 min 0 W/m 43,9 km/h (6 Bft) 98,15 %
04.01.2017 17:40 4,1 C 4,4 C 1,7 C 86 % 0 lf 1015,1 hPa 0,0 l/m 0 min 0 min 0 W/m 41,8 km/h (6 Bft) 94,74 %
04.01.2017 17:42 4,1 C 4,4 C 1,7 C 86 % 6 lf 1015,2 hPa 0,0 l/m 0 min 0 min 0 W/m 25,1 km/h (4 Bft) 97,92 %
04.01.2017 17:44 4,1 C 3,9 C 1,7 C 86 % 12 lf 1015,4 hPa 0,0 l/m 0 min 0 min 0 W/m 29,3 km/h (5 Bft) 97,87 %
04.01.2017 17:46 4,1 C 4,4 C 1,7 C 86 % 15 lf 1015,5 hPa 0,0 l/m 0 min 2 min 0 W/m 29,3 km/h (5 Bft) 93,62 %
04.01.2017 17:48 4,1 C 3,9 C 1,7 C 87 % 15 lf 1015,4 hPa 0,0 l/m 0 min 2 min 0 W/m 31,4 km/h (5 Bft) 95,74 %
04.01.2017 17:50 4,1 C 3,9 C 1,7 C 87 % 15 lf 1015,6 hPa 0,0 l/m 0 min 2 min 0 W/m 48,1 km/h (6 Bft) 97,92 %
04.01.2017 17:52 4,1 C 3,9 C 1,7 C 87 % 15 lf 1015,5 hPa 0,0 l/m 0 min 2 min 0 W/m 46,0 km/h (6 Bft) 95,83 %
04.01.2017 17:54 4,1 C 3,9 C 1,7 C 87 % 15 lf 1015,7 hPa 0,0 l/m 0 min 2 min 0 W/m 37,7 km/h (5 Bft) 97,87 %
04.01.2017 17:56 4,1 C 3,9 C 1,7 C 87 % 15 lf 1015,7 hPa 0,0 l/m 0 min 2 min 0 W/m 33,5 km/h (5 Bft) 95,24 %
04.01.2017 17:58 4,1 C 3,9 C 1,7 C 88 % 15 lf 1015,8 hPa 0,0 l/m 0 min 2 min 0 W/m 27,2 km/h (4 Bft) 97,87 %
04.01.2017 18:00 4,0 C 3,9 C 1,7 C 88 % 15 lf 1015,8 hPa 0,0 l/m 0 min 2 min 0 W/m 16,7 km/h (3 Bft) 98,00 %
04.01.2017 18:02 4,0 C 3,9 C 1,7 C 88 % 15 lf 1015,8 hPa 0,0 l/m 0 min 2 min 0 W/m 16,7 km/h (3 Bft) 89,80 %
04.01.2017 18:04 4,0 C 3,9 C 1,7 C 88 % 15 lf 1015,9 hPa 0,0 l/m 0 min 2 min 0 W/m 18,8 km/h (3 Bft) 97,83 %
04.01.2017 18:06 3,9 C 3,9 C 1,7 C 88 % 15 lf 1015,9 hPa 0,0 l/m 0 min 2 min 0 W/m 20,9 km/h (4 Bft) 97,87 %
04.01.2017 18:08 3,9 C 3,9 C 1,7 C 88 % 15 lf 1016,1 hPa 0,0 l/m 0 min 2 min 0 W/m 27,2 km/h (4 Bft) 97,14 %
04.01.2017 18:10 3,9 C 3,9 C 1,7 C 88 % 15 lf 1016,1 hPa 0,0 l/m 0 min 2 min 0 W/m 25,1 km/h (4 Bft) 94,92 %
04.01.2017 18:12 3,9 C 3,9 C 1,7 C 89 % 15 lf 1016,1 hPa 0,0 l/m 0 min 2 min 0 W/m 20,9 km/h (4 Bft) 97,56 %
04.01.2017 18:14 3,9 C 3,9 C 1,7 C 89 % 15 lf 1016,0 hPa 0,0 l/m 0 min 2 min 0 W/m 23,0 km/h (4 Bft) 95,74 %
04.01.2017 18:16 3,9 C 3,9 C 1,7 C 89 % 15 lf 1016,1 hPa 0,0 l/m 0 min 2 min 0 W/m 23,0 km/h (4 Bft) 98,00 %
04.01.2017 18:18 3,8 C 3,9 C 1,7 C 89 % 15 lf 1016,1 hPa 0,0 l/m 0 min 2 min 0 W/m 18,8 km/h (3 Bft) 95,92 %
04.01.2017 18:20 3,8 C 3,9 C 1,7 C 89 % 15 lf 1016,2 hPa 0,0 l/m 0 min 2 min 0 W/m 16,7 km/h (3 Bft) 97,87 %
04.01.2017 18:22 3,8 C 3,9 C 1,7 C 89 % 15 lf 1016,3 hPa 0,0 l/m 0 min 2 min 0 W/m 18,8 km/h (3 Bft) 97,87 %
04.01.2017 18:24 3,8 C 3,9 C 1,7 C 90 % 15 lf 1016,3 hPa 0,0 l/m 0 min 2 min 0 W/m 20,9 km/h (4 Bft) 97,87 %
04.01.2017 18:26 3,7 C 3,3 C 1,7 C 90 % 15 lf 1016,3 hPa 0,2 l/m 0 min 2 min 0 W/m 27,2 km/h (4 Bft) 97,56 %
04.01.2017 18:28 3,7 C 3,3 C 1,7 C 90 % 15 lf 1016,4 hPa 0,0 l/m 0 min 2 min 0 W/m 12,6 km/h (3 Bft) 95,92 %
04.01.2017 18:30 3,7 C 3,3 C 1,7 C 90 % 15 lf 1016,3 hPa 0,0 l/m 0 min 2 min 0 W/m 29,3 km/h (5 Bft) 97,87 %
04.01.2017 18:32 3,7 C 3,3 C 1,7 C 90 % 15 lf 1016,3 hPa 0,0 l/m 0 min 2 min 0 W/m 29,3 km/h (5 Bft) 95,74 %
04.01.2017 18:34 3,6 C 3,3 C 1,7 C 90 % 15 lf 1016,3 hPa 0,0 l/m 0 min 2 min 0 W/m 27,2 km/h (4 Bft) 98,00 %
04.01.2017 18:36 3,6 C 3,3 C 1,7 C 91 % 15 lf 1016,3 hPa 0,0 l/m 0 min 0 min 0 W/m 23,0 km/h (4 Bft) 97,87 %
04.01.2017 18:38 3,6 C 3,3 C 1,1 C 91 % 15 lf 1016,2 hPa 0,0 l/m 0 min 0 min 0 W/m 25,1 km/h (4 Bft) 95,65 %
04.01.2017 18:40 3,5 C 3,3 C 1,1 C 91 % 15 lf 1016,2 hPa 0,0 l/m 0 min 2 min 0 W/m 29,3 km/h (5 Bft) 97,62 %
04.01.2017 18:42 3,5 C 3,3 C 1,1 C 91 % 15 lf 1016,3 hPa 0,0 l/m 0 min 0 min 0 W/m 25,1 km/h (4 Bft) 97,96 %
04.01.2017 18:44 3,4 C 3,3 C 1,7 C 91 % 15 lf 1016,4 hPa 0,0 l/m 0 min 0 min 0 W/m 16,7 km/h (3 Bft) 100,00 %
04.01.2017 18:46 3,4 C 3,3 C 1,7 C 91 % 15 lf 1016,3 hPa 0,0 l/m 0 min 2 min 0 W/m 16,7 km/h (3 Bft) 100,00 %
04.01.2017 18:48 3,4 C 3,3 C 1,1 C 91 % 15 lf 1016,3 hPa 0,0 l/m 0 min 2 min 0 W/m 23,0 km/h (4 Bft) 100,00 %
04.01.2017 18:50 3,4 C 2,8 C 1,1 C 91 % 15 lf 1016,4 hPa 0,0 l/m 0 min 2 min 0 W/m 18,8 km/h (3 Bft) 100,00 %
04.01.2017 18:52 3,4 C 2,8 C 1,1 C 91 % 15 lf 1016,4 hPa 0,0 l/m 0 min 0 min 0 W/m 16,7 km/h (3 Bft) 100,00 %
04.01.2017 18:54 3,3 C 2,8 C 1,1 C 91 % 15 lf 1016,4 hPa 0,0 l/m 0 min 2 min 0 W/m 23,0 km/h (4 Bft) 97,96 %
04.01.2017 18:56 3,3 C 2,8 C 1,1 C 91 % 15 lf 1016,4 hPa 0,0 l/m 0 min 0 min 0 W/m 23,0 km/h (4 Bft) 97,87 %
04.01.2017 18:58 3,3 C 2,8 C 1,1 C 91 % 15 lf 1016,4 hPa 0,0 l/m 0 min 0 min 0 W/m 20,9 km/h (4 Bft) 100,00 %
04.01.2017 19:00 3,3 C 3,3 C 1,1 C 91 % 15 lf 1016,4 hPa 0,0 l/m 0 min 0 min 0 W/m 18,8 km/h (3 Bft) 100,00 %
04.01.2017 19:02 3,3 C 3,3 C 1,1 C 91 % 15 lf 1016,5 hPa 0,0 l/m 0 min 0 min 0 W/m 18,8 km/h (3 Bft) 100,00 %
04.01.2017 19:04 3,3 C 3,3 C 1,1 C 92 % 15 lf 1016,4 hPa 0,0 l/m 0 min 0 min 0 W/m 20,9 km/h (4 Bft) 100,00 %
04.01.2017 19:06 3,2 C 3,3 C 1,1 C 92 % 15 lf 1016,5 hPa 0,0 l/m 0 min 0 min 0 W/m 18,8 km/h (3 Bft) 97,83 %
04.01.2017 19:08 3,2 C 2,8 C 1,1 C 92 % 15 lf 1016,5 hPa 0,0 l/m 0 min 0 min 0 W/m 16,7 km/h (3 Bft) 100,00 %
04.01.2017 19:10 3,2 C 2,8 C 0,6 C 92 % 15 lf 1016,5 hPa 0,0 l/m 0 min 0 min 0 W/m 18,8 km/h (3 Bft) 100,00 %
04.01.2017 19:12 3,2 C 2,8 C 0,6 C 92 % 15 lf 1016,6 hPa 0,0 l/m 0 min 0 min 0 W/m 23,0 km/h (4 Bft) 95,74 %
04.01.2017 19:14 3,2 C 2,8 C 0,6 C 92 % 15 lf 1016,6 hPa 0,0 l/m 0 min 0 min 0 W/m 20,9 km/h (4 Bft) 100,00 %
04.01.2017 19:16 3,1 C 2,8 C 0,6 C 92 % 15 lf 1016,7 hPa 0,0 l/m 0 min 0 min 0 W/m 12,6 km/h (3 Bft) 100,00 %
04.01.2017 19:18 3,1 C 2,8 C 0,6 C 92 % 15 lf 1016,6 hPa 0,0 l/m 0 min 0 min 0 W/m 18,8 km/h (3 Bft) 94,00 %
04.01.2017 19:20 3,1 C 2,8 C 0,6 C 92 % 15 lf 1016,7 hPa 0,0 l/m 0 min 0 min 0 W/m 14,6 km/h (3 Bft) 96,00 %
04.01.2017 19:22 3,0 C 2,8 C 0,6 C 92 % 15 lf 1016,7 hPa 0,0 l/m 0 min 0 min 0 W/m 16,7 km/h (3 Bft) 95,74 %
04.01.2017 19:24 3,0 C 2,2 C 0,6 C 92 % 15 lf 1016,6 hPa 0,0 l/m 0 min 0 min 0 W/m 18,8 km/h (3 Bft) 95,12 %
04.01.2017 19:26 2,9 C 2,2 C 0,6 C 92 % 15 lf 1016,7 hPa 0,0 l/m 0 min 0 min 0 W/m 16,7 km/h (3 Bft) 95,74 %
04.01.2017 19:28 2,9 C 2,2 C 0,6 C 92 % 15 lf 1016,8 hPa 0,0 l/m 0 min 0 min 0 W/m 18,8 km/h (3 Bft) 95,65 %
04.01.2017 19:30 2,9 C 2,8 C 0,6 C 92 % 15 lf 1016,8 hPa 0,0 l/m 0 min 0 min 0 W/m 18,8 km/h (3 Bft) 95,74 %
04.01.2017 19:32 2,9 C 2,8 C 1,1 C 92 % 15 lf 1016,8 hPa 0,0 l/m 0 min 0 min 0 W/m 27,2 km/h (4 Bft) 90,00 %
04.01.2017 19:34 2,9 C 2,8 C 1,1 C 92 % 15 lf 1016,9 hPa 0,0 l/m 0 min 0 min 0 W/m 23,0 km/h (4 Bft) 97,37 %
04.01.2017 19:36 2,9 C 2,8 C 1,1 C 92 % 15 lf 1017,0 hPa 0,0 l/m 0 min 0 min 0 W/m 23,0 km/h (4 Bft) 94,34 %
04.01.2017 19:38 2,9 C 2,8 C 1,1 C 93 % 15 lf 1017,0 hPa 0,0 l/m 0 min 0 min 0 W/m 27,2 km/h (4 Bft) 93,62 %
04.01.2017 19:40 2,9 C 3,3 C 1,1 C 93 % 15 lf 1017,1 hPa 0,0 l/m 0 min 0 min 0 W/m 33,5 km/h (5 Bft) 95,65 %
04.01.2017 19:42 2,9 C 3,3 C 1,1 C 93 % 15 lf 1017,3 hPa 0,0 l/m 0 min 2 min 0 W/m 35,6 km/h (5 Bft) 95,74 %
04.01.2017 19:44 2,9 C 3,3 C 1,1 C 93 % 15 lf 1017,2 hPa 0,0 l/m 0 min 2 min 0 W/m 20,9 km/h (4 Bft) 94,00 %
04.01.2017 19:46 2,9 C 3,3 C 1,1 C 93 % 15 lf 1017,2 hPa 0,0 l/m 0 min 0 min 0 W/m 33,5 km/h (5 Bft) 94,00 %
04.01.2017 19:48 3,0 C 3,3 C 1,7 C 93 % 15 lf 1017,3 hPa 0,0 l/m 0 min 0 min 0 W/m 27,2 km/h (4 Bft) 91,49 %
04.01.2017 19:50 3,0 C 3,3 C 1,7 C 93 % 15 lf 1017,4 hPa 0,0 l/m 0 min 2 min 0 W/m 29,3 km/h (5 Bft) 95,65 %
04.01.2017 19:52 3,1 C 3,3 C 1,7 C 93 % 15 lf 1017,4 hPa 0,0 l/m 0 min 0 min 0 W/m 27,2 km/h (4 Bft) 97,87 %
04.01.2017 19:54 3,1 C 3,3 C 1,7 C 93 % 15 lf 1017,4 hPa 0,0 l/m 0 min 0 min 0 W/m 29,3 km/h (5 Bft) 97,87 %
04.01.2017 19:56 3,1 C 3,9 C 1,7 C 93 % 15 lf 1017,4 hPa 0,0 l/m 0 min 2 min 0 W/m 37,7 km/h (5 Bft) 97,87 %
04.01.2017 19:58 3,2 C 3,9 C 1,7 C 93 % 15 lf 1017,3 hPa 0,0 l/m 0 min 2 min 0 W/m 31,4 km/h (5 Bft) 97,87 %
04.01.2017 20:00 3,2 C 3,3 C 1,7 C 93 % 15 lf 1017,0 hPa 0,0 l/m 0 min 0 min 0 W/m 25,1 km/h (4 Bft) 95,65 %
04.01.2017 20:02 3,2 C 3,3 C 1,7 C 93 % 15 lf 1017,0 hPa 0,0 l/m 0 min 0 min 0 W/m 25,1 km/h (4 Bft) 97,62 %
04.01.2017 20:04 3,2 C 3,3 C 1,1 C 93 % 15 lf 1017,0 hPa 0,0 l/m 0 min 0 min 0 W/m 29,3 km/h (5 Bft) 95,92 %
04.01.2017 20:06 3,2 C 3,3 C 1,1 C 93 % 15 lf 1017,0 hPa 0,0 l/m 0 min 0 min 0 W/m 29,3 km/h (5 Bft) 91,49 %
04.01.2017 20:08 3,2 C 3,3 C 1,1 C 93 % 15 lf 1017,1 hPa 0,0 l/m 0 min 0 min 0 W/m 25,1 km/h (4 Bft) 96,00 %
04.01.2017 20:10 3,2 C 3,3 C 1,1 C 93 % 15 lf 1017,2 hPa 0,0 l/m 0 min 0 min 0 W/m 25,1 km/h (4 Bft) 97,56 %
04.01.2017 20:12 3,1 C 3,3 C 1,1 C 93 % 15 lf 1017,3 hPa 0,0 l/m 0 min 0 min 0 W/m 20,9 km/h (4 Bft) 98,00 %
04.01.2017 20:14 3,1 C 3,3 C 1,1 C 93 % 14 lf 1017,4 hPa 0,0 l/m 0 min 0 min 0 W/m 18,8 km/h (3 Bft) 91,30 %
04.01.2017 20:16 3,1 C 2,8 C 0,6 C 93 % 13 lf 1017,4 hPa 0,0 l/m 0 min 0 min 0 W/m 23,0 km/h (4 Bft) 94,00 %
04.01.2017 20:18 3,0 C 2,8 C 0,6 C 92 % 12 lf 1017,4 hPa 0,0 l/m 0 min 0 min 0 W/m 16,7 km/h (3 Bft) 95,74 %
04.01.2017 20:20 3,0 C 2,8 C 0,6 C 92 % 11 lf 1017,5 hPa 0,0 l/m 0 min 0 min 0 W/m 16,7 km/h (3 Bft) 95,12 %
04.01.2017 20:22 2,9 C 2,8 C 0,0 C 92 % 10 lf 1017,5 hPa 0,0 l/m 0 min 0 min 0 W/m 16,7 km/h (3 Bft) 95,74 %
04.01.2017 20:24 2,9 C 2,2 C 0,0 C 92 % 9 lf 1017,6 hPa 0,0 l/m 0 min 0 min 0 W/m 23,0 km/h (4 Bft) 93,62 %
04.01.2017 20:26 2,9 C 2,2 C 0,0 C 92 % 6 lf 1017,6 hPa 0,0 l/m 0 min 0 min 0 W/m 16,7 km/h (3 Bft) 97,83 %
04.01.2017 20:28 2,8 C 2,2 C 0,0 C 92 % 4 lf 1017,7 hPa 0,0 l/m 0 min 0 min 0 W/m 14,6 km/h (3 Bft) 97,87 %
04.01.2017 20:30 2,8 C 2,2 C 0,0 C 92 % 4 lf 1017,7 hPa 0,0 l/m 0 min 0 min 0 W/m 18,8 km/h (3 Bft) 95,74 %
04.01.2017 20:32 2,7 C 2,2 C 0,0 C 92 % 3 lf 1017,7 hPa 0,0 l/m 0 min 0 min 0 W/m 20,9 km/h (4 Bft) 93,62 %
04.01.2017 20:34 2,7 C 2,2 C 0,0 C 92 % 3 lf 1017,8 hPa 0,0 l/m 0 min 0 min 0 W/m 18,8 km/h (3 Bft) 94,00 %
04.01.2017 20:36 2,7 C 2,2 C 0,0 C 91 % 2 lf 1017,8 hPa 0,0 l/m 0 min 0 min 0 W/m 16,7 km/h (3 Bft) 93,88 %
04.01.2017 20:38 2,6 C 2,2 C 0,0 C 91 % 2 lf 1017,8 hPa 0,0 l/m 0 min 0 min 0 W/m 16,7 km/h (3 Bft) 95,74 %
04.01.2017 20:40 2,6 C 2,2 C 0,0 C 91 % 1 lf 1017,9 hPa 0,0 l/m 0 min 0 min 0 W/m 12,6 km/h (3 Bft) 95,12 %
04.01.2017 20:42 2,6 C 1,7 C 0,0 C 91 % 1 lf 1017,9 hPa 0,0 l/m 0 min 0 min 0 W/m 12,6 km/h (3 Bft) 94,00 %
04.01.2017 20:44 2,5 C 1,7 C -0,6 C 91 % 1 lf 1017,9 hPa 0,0 l/m 0 min 0 min 0 W/m 10,5 km/h (2 Bft) 91,49 %
04.01.2017 20:46 2,5 C 1,7 C -0,6 C 91 % 0 lf 1017,9 hPa 0,0 l/m 0 min 0 min 0 W/m 12,6 km/h (3 Bft) 95,74 %
04.01.2017 20:48 2,4 C 1,7 C -0,6 C 91 % 0 lf 1018,0 hPa 0,0 l/m 0 min 0 min 0 W/m 10,5 km/h (2 Bft) 94,74 %
04.01.2017 20:50 2,4 C 1,7 C -0,6 C 91 % 0 lf 1018,2 hPa 0,0 l/m 0 min 0 min 0 W/m 10,5 km/h (2 Bft) 96,15 %
04.01.2017 20:52 2,4 C 1,7 C -0,6 C 91 % 0 lf 1018,2 hPa 0,0 l/m 0 min 0 min 0 W/m 10,5 km/h (2 Bft) 91,49 %
04.01.2017 20:54 2,3 C 1,7 C -0,6 C 91 % 0 lf 1018,2 hPa 0,0 l/m 0 min 0 min 0 W/m 12,6 km/h (3 Bft) 91,49 %
04.01.2017 20:56 2,3 C 1,7 C -0,6 C 91 % 0 lf 1018,1 hPa 0,0 l/m 0 min 0 min 0 W/m 10,5 km/h (2 Bft) 92,00 %
04.01.2017 20:58 2,3 C 1,7 C -0,6 C 91 % 0 lf 1018,2 hPa 0,0 l/m 0 min 0 min 0 W/m 12,6 km/h (3 Bft) 95,74 %
04.01.2017 21:00 2,2 C 1,7 C -0,6 C 91 % 0 lf 1018,2 hPa 0,0 l/m 0 min 0 min 0 W/m 16,7 km/h (3 Bft) 95,65 %
04.01.2017 21:02 2,2 C 1,7 C -0,6 C 91 % 0 lf 1018,2 hPa 0,0 l/m 0 min 0 min 0 W/m 16,7 km/h (3 Bft) 95,74 %
04.01.2017 21:04 2,2 C 1,7 C -0,6 C 91 % 0 lf 1018,3 hPa 0,0 l/m 0 min 0 min 0 W/m 16,7 km/h (3 Bft) 91,49 %
04.01.2017 21:06 2,1 C 1,7 C -0,6 C 91 % 0 lf 1018,3 hPa 0,0 l/m 0 min 0 min 0 W/m 14,6 km/h (3 Bft) 94,00 %
04.01.2017 21:08 2,1 C 1,7 C -0,6 C 91 % 0 lf 1018,3 hPa 0,0 l/m 0 min 0 min 0 W/m 10,5 km/h (2 Bft) 95,74 %
04.01.2017 21:10 2,1 C 1,7 C -0,6 C 91 % 0 lf 1018,3 hPa 0,0 l/m 0 min 0 min 0 W/m 12,6 km/h (3 Bft) 95,12 %
04.01.2017 21:12 2,1 C 1,7 C -0,6 C 91 % 0 lf 1018,4 hPa 0,0 l/m 0 min 0 min 0 W/m 12,6 km/h (3 Bft) 95,92 %
04.01.2017 21:14 2,1 C 1,1 C -0,6 C 91 % 0 lf 1018,4 hPa 0,0 l/m 0 min 0 min 0 W/m 10,5 km/h (2 Bft) 93,62 %
04.01.2017 21:16 2,0 C 1,1 C -0,6 C 91 % 0 lf 1018,3 hPa 0,0 l/m 0 min 0 min 0 W/m 14,6 km/h (3 Bft) 96,00 %
04.01.2017 21:18 2,0 C 1,7 C -0,6 C 91 % 0 lf 1018,4 hPa 0,0 l/m 0 min 0 min 0 W/m 16,7 km/h (3 Bft) 95,74 %
04.01.2017 21:20 2,0 C 1,7 C -0,6 C 91 % 0 lf 1018,4 hPa 0,0 l/m 0 min 0 min 0 W/m 10,5 km/h (2 Bft) 95,74 %
04.01.2017 21:22 1,9 C 1,7 C -0,6 C 91 % 0 lf 1018,4 hPa 0,0 l/m 0 min 0 min 0 W/m 14,6 km/h (3 Bft) 95,65 %
04.01.2017 21:24 1,9 C 1,7 C -0,6 C 91 % 0 lf 1018,4 hPa 0,0 l/m 0 min 0 min 0 W/m 12,6 km/h (3 Bft) 92,68 %
04.01.2017 21:26 1,9 C 1,7 C -0,6 C 91 % 0 lf 1018,5 hPa 0,0 l/m 0 min 0 min 0 W/m 10,5 km/h (2 Bft) 94,00 %
04.01.2017 21:28 1,9 C 1,7 C -0,6 C 91 % 0 lf 1018,5 hPa 0,0 l/m 0 min 0 min 0 W/m 14,6 km/h (3 Bft) 90,00 %
04.01.2017 21:30 1,9 C 1,7 C -0,6 C 91 % 0 lf 1018,5 hPa 0,0 l/m 0 min 0 min 0 W/m 10,5 km/h (2 Bft) 95,12 %
04.01.2017 21:32 1,9 C 1,7 C 0,0 C 92 % 0 lf 1018,5 hPa 0,0 l/m 0 min 0 min 0 W/m 10,5 km/h (2 Bft) 94,00 %
04.01.2017 21:34 1,9 C 1,7 C 0,0 C 92 % 0 lf 1018,6 hPa 0,0 l/m 0 min 0 min 0 W/m 10,5 km/h (2 Bft) 93,88 %
04.01.2017 21:36 1,9 C 1,7 C -0,6 C 92 % 0 lf 1018,6 hPa 0,0 l/m 0 min 0 min 0 W/m 16,7 km/h (3 Bft) 95,74 %
04.01.2017 21:38 1,9 C 1,7 C -0,6 C 92 % 0 lf 1018,6 hPa 0,0 l/m 0 min 0 min 0 W/m 12,6 km/h (3 Bft) 97,87 %
04.01.2017 21:40 1,9 C 1,7 C 0,0 C 92 % 0 lf 1018,6 hPa 0,0 l/m 0 min 0 min 0 W/m 18,8 km/h (3 Bft) 100,00 %
04.01.2017 21:42 1,9 C 1,7 C -0,6 C 92 % 0 lf 1018,6 hPa 0,0 l/m 0 min 0 min 0 W/m 12,6 km/h (3 Bft) 92,68 %
04.01.2017 21:44 1,9 C 1,7 C -0,6 C 92 % 0 lf 1018,7 hPa 0,0 l/m 0 min 0 min 0 W/m 12,6 km/h (3 Bft) 98,00 %
04.01.2017 21:46 1,9 C 1,7 C -0,6 C 92 % 0 lf 1018,7 hPa 0,0 l/m 0 min 0 min 0 W/m 12,6 km/h (3 Bft) 100,00 %
04.01.2017 21:48 1,9 C 1,7 C 0,0 C 92 % 0 lf 1018,7 hPa 0,0 l/m 0 min 0 min 0 W/m 20,9 km/h (4 Bft) 100,00 %
04.01.2017 21:50 1,9 C 1,7 C 0,0 C 92 % 0 lf 1018,8 hPa 0,0 l/m 0 min 0 min 0 W/m 16,7 km/h (3 Bft) 100,00 %
04.01.2017 21:52 2,0 C 1,7 C 0,0 C 92 % 0 lf 1018,8 hPa 0,0 l/m 0 min 0 min 0 W/m 16,7 km/h (3 Bft) 93,62 %
04.01.2017 21:54 2,0 C 1,7 C 0,0 C 93 % 0 lf 1018,8 hPa 0,0 l/m 0 min 0 min 0 W/m 14,6 km/h (3 Bft) 94,00 %
04.01.2017 21:56 2,0 C 1,7 C 0,0 C 93 % 0 lf 1018,9 hPa 0,0 l/m 0 min 0 min 0 W/m 16,7 km/h (3 Bft) 97,56 %
04.01.2017 21:58 2,0 C 1,7 C 0,0 C 93 % 0 lf 1019,0 hPa 0,0 l/m 0 min 0 min 0 W/m 20,9 km/h (4 Bft) 97,87 %
04.01.2017 22:00 2,0 C 1,7 C 0,0 C 93 % 0 lf 1019,0 hPa 0,0 l/m 0 min 0 min 0 W/m 12,6 km/h (3 Bft) 100,00 %
04.01.2017 22:02 2,0 C 1,7 C 0,0 C 93 % 0 lf 1018,9 hPa 0,0 l/m 0 min 0 min 0 W/m 12,6 km/h (3 Bft) 95,74 %
04.01.2017 22:04 2,0 C 1,7 C 0,0 C 93 % 0 lf 1019,0 hPa 0,0 l/m 0 min 0 min 0 W/m 14,6 km/h (3 Bft) 100,00 %
04.01.2017 22:06 2,0 C 1,7 C 0,0 C 93 % 0 lf 1019,0 hPa 0,0 l/m 0 min 0 min 0 W/m 12,6 km/h (3 Bft) 97,87 %
04.01.2017 22:08 2,0 C 1,7 C 0,0 C 93 % 0 lf 1019,1 hPa 0,0 l/m 0 min 0 min 0 W/m 16,7 km/h (3 Bft) 97,96 %
04.01.2017 22:10 2,0 C 1,7 C 0,0 C 93 % 0 lf 1019,1 hPa 0,0 l/m 0 min 0 min 0 W/m 12,6 km/h (3 Bft) 97,87 %
04.01.2017 22:12 2,0 C 1,7 C -0,6 C 93 % 0 lf 1019,1 hPa 0,0 l/m 0 min 0 min 0 W/m 10,5 km/h (2 Bft) 95,12 %
04.01.2017 22:14 2,0 C 1,7 C -0,6 C 93 % 0 lf 1019,1 hPa 0,0 l/m 0 min 0 min 0 W/m 12,6 km/h (3 Bft) 100,00 %
04.01.2017 22:16 2,0 C 1,7 C -0,6 C 93 % 0 lf 1019,2 hPa 0,0 l/m 0 min 0 min 0 W/m 14,6 km/h (3 Bft) 100,00 %
04.01.2017 22:18 2,0 C 1,7 C -0,6 C 93 % 0 lf 1019,2 hPa 0,0 l/m 0 min 0 min 0 W/m 23,0 km/h (4 Bft) 100,00 %
04.01.2017 22:20 2,0 C 1,7 C -0,6 C 93 % 0 lf 1019,2 hPa 0,0 l/m 0 min 0 min 0 W/m 10,5 km/h (2 Bft) 100,00 %
04.01.2017 22:22 2,0 C 1,7 C -0,6 C 93 % 0 lf 1019,2 hPa 0,0 l/m 0 min 0 min 0 W/m 12,6 km/h (3 Bft) 100,00 %
04.01.2017 22:24 2,0 C 1,7 C -0,6 C 93 % 0 lf 1019,2 hPa 0,0 l/m 0 min 0 min 0 W/m 12,6 km/h (3 Bft) 98,28 %
04.01.2017 22:26 2,0 C 1,7 C -0,6 C 93 % 1 lf 1019,3 hPa 0,0 l/m 0 min 0 min 0 W/m 12,6 km/h (3 Bft) 95,12 %
04.01.2017 22:28 2,0 C 1,7 C -0,6 C 93 % 1 lf 1019,3 hPa 0,0 l/m 0 min 0 min 0 W/m 12,6 km/h (3 Bft) 98,00 %
04.01.2017 22:30 1,9 C 1,7 C -0,6 C 93 % 1 lf 1019,4 hPa 0,0 l/m 0 min 0 min 0 W/m 12,6 km/h (3 Bft) 100,00 %
04.01.2017 22:32 1,9 C 1,7 C -1,1 C 93 % 1 lf 1019,4 hPa 0,0 l/m 0 min 0 min 0 W/m 10,5 km/h (2 Bft) 97,96 %
04.01.2017 22:34 1,9 C 1,7 C -0,6 C 93 % 1 lf 1019,4 hPa 0,0 l/m 0 min 0 min 0 W/m 12,6 km/h (3 Bft) 95,24 %
04.01.2017 22:36 1,9 C 1,7 C -0,6 C 93 % 1 lf 1019,4 hPa 0,0 l/m 0 min 0 min 0 W/m 14,6 km/h (3 Bft) 97,96 %
04.01.2017 22:38 1,9 C 1,7 C -0,6 C 93 % 1 lf 1019,5 hPa 0,0 l/m 0 min 0 min 0 W/m 12,6 km/h (3 Bft) 96,00 %
04.01.2017 22:40 1,9 C 1,7 C -0,6 C 93 % 1 lf 1019,5 hPa 0,0 l/m 0 min 0 min 0 W/m 12,6 km/h (3 Bft) 95,74 %
04.01.2017 22:42 1,9 C 1,1 C -0,6 C 93 % 1 lf 1019,5 hPa 0,0 l/m 0 min 0 min 0 W/m 14,6 km/h (3 Bft) 90,24 %
04.01.2017 22:44 1,9 C 1,1 C -0,6 C 93 % 1 lf 1019,5 hPa 0,0 l/m 0 min 0 min 0 W/m 16,7 km/h (3 Bft) 96,00 %
04.01.2017 22:46 1,8 C 1,7 C -0,6 C 94 % 1 lf 1019,6 hPa 0,0 l/m 0 min 0 min 0 W/m 10,5 km/h (2 Bft) 97,83 %
04.01.2017 22:48 1,8 C 1,1 C -0,6 C 94 % 1 lf 1019,6 hPa 0,0 l/m 0 min 0 min 0 W/m 14,6 km/h (3 Bft) 98,00 %
04.01.2017 22:50 1,8 C 1,1 C -0,6 C 94 % 1 lf 1019,6 hPa 0,0 l/m 0 min 0 min 0 W/m 14,6 km/h (3 Bft) 95,12 %
04.01.2017 22:52 1,8 C 1,1 C -0,6 C 94 % 1 lf 1019,6 hPa 0,0 l/m 0 min 0 min 0 W/m 12,6 km/h (3 Bft) 93,62 %
04.01.2017 22:54 1,8 C 1,1 C -0,6 C 94 % 1 lf 1019,6 hPa 0,0 l/m 0 min 0 min 0 W/m 14,6 km/h (3 Bft) 96,00 %
04.01.2017 22:56 1,8 C 1,1 C -0,6 C 94 % 1 lf 1019,6 hPa 0,0 l/m 0 min 0 min 0 W/m 12,6 km/h (3 Bft) 91,49 %
04.01.2017 22:58 1,8 C 1,1 C -1,1 C 94 % 1 lf 1019,7 hPa 0,0 l/m 0 min 0 min 0 W/m 14,6 km/h (3 Bft) 91,30 %
04.01.2017 23:00 1,8 C 1,1 C -0,6 C 94 % 1 lf 1019,7 hPa 0,0 l/m 0 min 0 min 0 W/m 14,6 km/h (3 Bft) 89,36 %
04.01.2017 23:04 1,8 C 1,1 C -1,1 C 94 % 1 lf 1019,7 hPa 0,0 l/m 0 min 0 min 0 W/m 8,4 km/h (2 Bft) 92,78 %
04.01.2017 23:06 1,7 C 1,1 C -1,1 C 94 % 1 lf 1019,8 hPa 0,0 l/m 0 min 0 min 0 W/m 10,5 km/h (2 Bft) 90,24 %
04.01.2017 23:08 1,7 C 1,1 C -1,1 C 94 % 1 lf 1019,9 hPa 0,0 l/m 0 min 0 min 0 W/m 12,6 km/h (3 Bft) 93,88 %
04.01.2017 23:10 1,7 C 1,1 C -1,1 C 94 % 1 lf 1019,9 hPa 0,0 l/m 0 min 0 min 0 W/m 12,6 km/h (3 Bft) 92,00 %
04.01.2017 23:12 1,7 C 1,1 C -1,1 C 94 % 1 lf 1020,0 hPa 0,0 l/m 0 min 0 min 0 W/m 12,6 km/h (3 Bft) 93,62 %
04.01.2017 23:14 1,7 C 1,1 C -1,1 C 94 % 1 lf 1020,0 hPa 0,0 l/m 0 min 0 min 0 W/m 12,6 km/h (3 Bft) 95,12 %
04.01.2017 23:16 1,7 C 1,1 C -0,6 C 94 % 1 lf 1020,0 hPa 0,0 l/m 0 min 0 min 0 W/m 14,6 km/h (3 Bft) 96,00 %
04.01.2017 23:18 1,7 C 1,1 C -1,1 C 94 % 1 lf 1020,1 hPa 0,0 l/m 0 min 0 min 0 W/m 10,5 km/h (2 Bft) 91,84 %
04.01.2017 23:20 1,7 C 1,1 C -1,1 C 94 % 1 lf 1020,1 hPa 0,0 l/m 0 min 0 min 0 W/m 10,5 km/h (2 Bft) 89,36 %
04.01.2017 23:22 1,7 C 1,1 C -1,1 C 94 % 1 lf 1020,1 hPa 0,0 l/m 0 min 0 min 0 W/m 12,6 km/h (3 Bft) 92,68 %
04.01.2017 23:24 1,6 C 1,1 C -1,1 C 94 % 1 lf 1020,1 hPa 0,0 l/m 0 min 0 min 0 W/m 12,6 km/h (3 Bft) 96,00 %
04.01.2017 23:26 1,6 C 1,1 C -1,7 C 94 % 1 lf 1020,1 hPa 0,0 l/m 0 min 0 min 0 W/m 12,6 km/h (3 Bft) 95,74 %
04.01.2017 23:28 1,6 C 1,1 C -1,7 C 94 % 2 lf 1020,1 hPa 0,0 l/m 0 min 0 min 0 W/m 12,6 km/h (3 Bft) 92,00 %
04.01.2017 23:30 1,6 C 1,1 C -1,7 C 94 % 2 lf 1020,2 hPa 0,0 l/m 0 min 0 min 0 W/m 10,5 km/h (2 Bft) 95,65 %
04.01.2017 23:32 1,6 C 1,1 C -1,7 C 94 % 2 lf 1020,2 hPa 0,0 l/m 0 min 0 min 0 W/m 14,6 km/h (3 Bft) 95,12 %
04.01.2017 23:34 1,6 C 1,1 C -1,7 C 94 % 2 lf 1020,3 hPa 0,0 l/m 0 min 0 min 0 W/m 16,7 km/h (3 Bft) 95,74 %
04.01.2017 23:36 1,6 C 1,1 C -1,1 C 94 % 2 lf 1020,4 hPa 0,0 l/m 0 min 0 min 0 W/m 10,5 km/h (2 Bft) 98,00 %
04.01.2017 23:38 1,5 C 1,1 C -1,1 C 94 % 2 lf 1020,5 hPa 0,0 l/m 0 min 0 min 0 W/m 12,6 km/h (3 Bft) 100,00 %
04.01.2017 23:40 1,5 C 1,1 C -1,7 C 94 % 2 lf 1020,5 hPa 0,0 l/m 0 min 0 min 0 W/m 8,4 km/h (2 Bft) 95,12 %
04.01.2017 23:42 1,5 C 1,1 C -1,7 C 94 % 2 lf 1020,5 hPa 0,0 l/m 0 min 0 min 0 W/m 16,7 km/h (3 Bft) 96,00 %
04.01.2017 23:44 1,5 C 1,1 C -1,7 C 94 % 2 lf 1020,6 hPa 0,0 l/m 0 min 0 min 0 W/m 12,6 km/h (3 Bft) 100,00 %
04.01.2017 23:46 1,4 C 0,6 C -1,7 C 94 % 2 lf 1020,6 hPa 0,0 l/m 0 min 0 min 0 W/m 14,6 km/h (3 Bft) 100,00 %
04.01.2017 23:48 1,4 C 0,6 C -1,7 C 94 % 2 lf 1020,6 hPa 0,0 l/m 0 min 0 min 0 W/m 10,5 km/h (2 Bft) 98,00 %
04.01.2017 23:50 1,4 C 0,6 C -1,7 C 94 % 2 lf 1020,7 hPa 0,0 l/m 0 min 0 min 0 W/m 14,6 km/h (3 Bft) 97,87 %
04.01.2017 23:52 1,4 C 0,6 C -1,7 C 94 % 2 lf 1020,8 hPa 0,0 l/m 0 min 0 min 0 W/m 10,5 km/h (2 Bft) 100,00 %
04.01.2017 23:54 1,4 C 0,6 C -1,7 C 94 % 2 lf 1020,7 hPa 0,0 l/m 0 min 0 min 0 W/m 18,8 km/h (3 Bft) 100,00 %
04.01.2017 23:56 1,4 C 0,6 C -1,7 C 94 % 2 lf 1020,8 hPa 0,0 l/m 0 min 0 min 0 W/m 12,6 km/h (3 Bft) 100,00 %
04.01.2017 23:58 1,3 C 1,1 C -1,7 C 94 % 3 lf 1020,8 hPa 0,0 l/m 0 min 0 min 0 W/m 10,5 km/h (2 Bft) 98,00 %
_ Min-Zeit 23:58 23:46 23:26 16:14 00:00 06:30 - - - - 23:04 08:26
Minimum _ 1,3 C 0,6 C -1,7 C 83 % 0 lf 1012,5 hPa - - - - 8,4 km/h (2 Bft) 87,23 %
_ Max-Zeit 12:38 14:12 12:30 08:34 01:08 23:52 07:34 10:30 02:10 11:18 13:26 00:04
Maximum _ 5,4 C 11,1 C 4,4 C 99 % 15 lf 1020,8 hPa 0,4 l/m 2 min 2 min 206 W/m 66,9 km/h
N (8 Bft)
100,00 %
Durchschnitt _ 3,7 C 4,0 C 1,8 C 93 % 10 lf 1015,1 hPa #4,4 l/m #1:50 h #6:42 h 69 W/m 25,9 km/h (4 Bft) 95,99 %
© 2017 W. Hausmann